FW4676 Weather Reports


time (UTC)temp
C
wind
direction
speed
KPH
gust
KPH
rain 1hr
cm
rain 24hr
cm
rain mn
cm
humidity
%
barometer
mb
20190821135659 23 286 4.8 14.5 0.00 0.00 0.00 31 1032.9
20190821135552 23 296 4.8 14.5 0.00 0.00 0.00 31 1032.9
20190821135450 23 355 4.8 14.5 0.00 0.00 0.00 32 1032.9
20190821135346 23 71 4.8 14.5 0.00 0.00 0.00 32 1032.9
20190821135242 23 335 4.8 14.5 0.00 0.00 0.00 32 1032.9
20190821135134 23 5 6.4 14.5 0.00 0.00 0.00 31 1032.8
20190821135029 23 291 6.4 14.5 0.00 0.00 0.00 31 1032.9
20190821134923 23 297 4.8 14.5 0.00 0.00 0.00 31 1032.9
20190821134817 23 267 4.8 14.5 0.00 0.00 0.00 31 1032.9
20190821134710 23 306 4.8 14.5 0.00 0.00 0.00 31 1032.9
20190821134603 23 323 4.8 14.5 0.00 0.00 0.00 31 1032.9
20190821134459 23 300 4.8 14.5 0.00 0.00 0.00 30 1033.0
20190821134352 24 331 4.8 14.5 0.00 0.00 0.00 29 1033.1
20190821134249 24 5 3.2 14.5 0.00 0.00 0.00 30 1033.0
20190821134143 24 0 3.2 14.5 0.00 0.00 0.00 30 1033.0
20190821134039 24 65 3.2 9.7 0.00 0.00 0.00 30 1033.0
20190821133937 24 50 3.2 9.7 0.00 0.00 0.00 30 1033.0
20190821133834 24 57 1.6 9.7 0.00 0.00 0.00 30 1033.1
20190821133729 24 123 1.6 9.7 0.00 0.00 0.00 29 1032.9
20190821133623 25 117 1.6 9.7 0.00 0.00 0.00 30 1033.0
20190821133519 25 103 1.6 6.4 0.00 0.00 0.00 30 1033.0
20190821133414 25 90 1.6 6.4 0.00 0.00 0.00 30 1033.1
20190821133312 24 53 1.6 6.4 0.00 0.00 0.00 30 1033.0
20190821133210 24 46 1.6 4.8 0.00 0.00 0.00 30 1033.0
20190821133108 24 97 0.0 4.8 0.00 0.00 0.00 30 1033.0
20190821133002 24 69 1.6 4.8 0.00 0.00 0.00 31 1033.1
20190821132900 24 115 1.6 4.8 0.00 0.00 0.00 30 1033.0
20190821132755 24 115 0.0 4.8 0.00 0.00 0.00 31 1033.1
20190821132652 24 119 0.0 4.8 0.00 0.00 0.00 31 1033.1
20190821132549 24 87 0.0 9.7 0.00 0.00 0.00 31 1033.1
20190821132444 23 74 0.0 9.7 0.00 0.00 0.00 31 1033.1
20190821132339 23 80 0.0 9.7 0.00 0.00 0.00 30 1033.0
20190821132233 23 315 0.0 9.7 0.00 0.00 0.00 31 1033.0
20190821132126 23 264 0.0 9.7 0.00 0.00 0.00 31 1033.1
20190821132019 23 155 0.0 9.7 0.00 0.00 0.00 31 1033.1
20190821131916 23 167 0.0 9.7 0.00 0.00 0.00 30 1033.1
20190821131809 23 171 0.0 9.7 0.00 0.00 0.00 31 1033.1
20190821131702 23 192 1.6 9.7 0.00 0.00 0.00 30 1033.0
20190821131557 23 192 1.6 9.7 0.00 0.00 0.00 31 1033.1
20190821131454 23 96 1.6 9.7 0.00 0.00 0.00 31 1033.2
20190821131350 23 100 1.6 9.7 0.00 0.00 0.00 31 1033.1
20190821131243 23 100 1.6 9.7 0.00 0.00 0.00 31 1033.1
20190821131137 23 100 1.6 9.7 0.00 0.00 0.00 31 1033.1
20190821131034 23 273 1.6 9.7 0.00 0.00 0.00 30 1033.1
20190821130928 23 61 1.6 9.7 0.00 0.00 0.00 30 1033.1
20190821130823 23 61 1.6 9.7 0.00 0.00 0.00 30 1033.1
20190821130718 23 69 1.6 9.7 0.00 0.00 0.00 31 1033.2
20190821130614 23 65 1.6 9.7 0.00 0.00 0.00 31 1033.0
20190821130510 23 92 1.6 8.0 0.00 0.00 0.00 32 1033.1
20190821130408 23 111 1.6 8.0 0.00 0.00 0.00 32 1033.2
20190821130301 23 117 3.2 9.7 0.00 0.00 0.00 32 1033.1
20190821130157 23 119 3.2 9.7 0.00 0.00 0.00 33 1033.2
20190821130055 23 60 3.2 9.7 0.00 0.00 0.00 33 1033.1
20190821125949 23 90 3.2 9.7 0.00 0.00 0.00 33 1033.1
20190821125842 22 86 4.8 9.7 0.00 0.00 0.00 32 1033.1
20190821125738 22 94 4.8 9.7 0.00 0.00 0.00 33 1033.1
20190821125631 23 99 4.8 9.7 0.00 0.00 0.00 32 1033.1
20190821125526 23 82 4.8 9.7 0.00 0.00 0.00 31 1033.1
20190821125420 23 92 4.8 9.7 0.00 0.00 0.00 32 1033.1
20190821125317 23 102 4.8 9.7 0.00 0.00 0.00 32 1033.1
20190821125213 23 82 3.2 12.9 0.00 0.00 0.00 32 1033.1
20190821125108 23 87 3.2 12.9 0.00 0.00 0.00 31 1033.1
20190821125002 23 97 3.2 12.9 0.00 0.00 0.00 31 1033.1
20190821124859 23 96 3.2 12.9 0.00 0.00 0.00 32 1033.1
20190821124751 23 98 3.2 12.9 0.00 0.00 0.00 32 1033.1
20190821124649 23 92 3.2 12.9 0.00 0.00 0.00 32 1033.2
20190821124547 23 119 3.2 12.9 0.00 0.00 0.00 33 1033.2
20190821124445 23 93 4.8 12.9 0.00 0.00 0.00 34 1033.2
20190821124339 23 119 4.8 12.9 0.00 0.00 0.00 33 1033.2
20190821124235 23 101 4.8 12.9 0.00 0.00 0.00 33 1033.3
20190821124128 22 91 4.8 12.9 0.00 0.00 0.00 34 1033.2
20190821124026 22 79 4.8 12.9 0.00 0.00 0.00 33 1033.2
20190821123918 22 98 4.8 12.9 0.00 0.00 0.00 34 1033.2
20190821123812 22 69 4.8 12.9 0.00 0.00 0.00 34 1033.3
20190821123707 22 94 4.8 12.9 0.00 0.00 0.00 34 1033.2
20190821123601 22 78 4.8 12.9 0.00 0.00 0.00 34 1033.3
20190821123456 22 65 4.8 12.9 0.00 0.00 0.00 34 1033.3
20190821123350 22 76 3.2 12.9 0.00 0.00 0.00 34 1033.3
20190821123244 22 90 3.2 9.7 0.00 0.00 0.00 35 1033.3
20190821123139 22 98 3.2 9.7 0.00 0.00 0.00 34 1033.3
20190821123037 22 82 3.2 9.7 0.00 0.00 0.00 35 1033.3
20190821122932 22 107 1.6 9.7 0.00 0.00 0.00 34 1033.3
20190821122826 22 105 1.6 8.0 0.00 0.00 0.00 35 1033.4
20190821122721 22 69 1.6 8.0 0.00 0.00 0.00 35 1033.3
20190821122617 22 109 1.6 8.0 0.00 0.00 0.00 35 1033.3
20190821122514 22 60 1.6 11.3 0.00 0.00 0.00 35 1033.4
20190821122407 22 259 3.2 11.3 0.00 0.00 0.00 34 1033.3
20190821122302 22 312 3.2 11.3 0.00 0.00 0.00 34 1033.3
20190821122154 22 305 1.6 11.3 0.00 0.00 0.00 34 1033.3
20190821122051 22 309 3.2 11.3 0.00 0.00 0.00 34 1033.4
20190821121943 22 309 3.2 11.3 0.00 0.00 0.00 33 1033.4
20190821121842 23 317 3.2 11.3 0.00 0.00 0.00 32 1033.3
20190821121737 23 317 3.2 11.3 0.00 0.00 0.00 32 1033.4
20190821121630 23 5 3.2 11.3 0.00 0.00 0.00 33 1033.4
20190821121527 23 32 3.2 11.3 0.00 0.00 0.00 33 1033.3
20190821121420 23 24 1.6 11.3 0.00 0.00 0.00 33 1033.3
20190821121317 23 5 3.2 11.3 0.00 0.00 0.00 33 1033.4
20190821121211 23 13 3.2 11.3 0.00 0.00 0.00 33 1033.4
20190821121107 23 25 3.2 11.3 0.00 0.00 0.00 33 1033.4
20190821121001 23 65 3.2 11.3 0.00 0.00 0.00 33 1033.4
20190821120857 23 36 3.2 11.3 0.00 0.00 0.00 33 1033.4
20190821120751 23 0 3.2 11.3 0.00 0.00 0.00 33 1033.4
20190821120645 23 336 3.2 11.3 0.00 0.00 0.00 33 1033.4
20190821120541 23 25 3.2 11.3 0.00 0.00 0.00 33 1033.3
20190821120436 23 323 3.2 9.7 0.00 0.00 0.00 32 1033.4
20190821120330 23 296 3.2 9.7 0.00 0.00 0.00 32 1033.4
20190821120222 23 330 3.2 9.7 0.00 0.00 0.00 33 1033.4
20190821120120 23 21 3.2 9.7 0.00 0.00 0.00 33 1033.4
20190821120018 23 310 3.2 9.7 0.00 0.00 0.00 33 1033.3
20190821115913 23 99 3.2 9.7 0.00 0.00 0.00 33 1033.4
20190821115811 23 325 3.2 9.7 0.00 0.00 0.00 33 1033.4
20190821115704 23 82 3.2 9.7 0.00 0.00 0.00 33 1033.4
20190821115558 23 67 3.2 8.0 0.00 0.00 0.00 33 1033.5
20190821115453 23 32 3.2 8.0 0.00 0.00 0.00 34 1033.5
20190821115351 23 67 3.2 8.0 0.00 0.00 0.00 34 1033.5
20190821115248 23 47 3.2 8.0 0.00 0.00 0.00 34 1033.5
20190821115144 23 94 3.2 9.7 0.00 0.00 0.00 34 1033.5
20190821115041 23 26 3.2 9.7 0.00 0.00 0.00 34 1033.6
20190821114938 23 62 3.2 9.7 0.00 0.00 0.00 34 1033.6
20190821114832 23 17 3.2 9.7 0.00 0.00 0.00 34 1033.6
20190821114729 23 44 3.2 9.7 0.00 0.00 0.00 35 1033.6
20190821114626 23 46 3.2 9.7 0.00 0.00 0.00 35 1033.6
20190821114521 23 46 3.2 9.7 0.00 0.00 0.00 35 1033.7
20190821114414 22 96 3.2 9.7 0.00 0.00 0.00 35 1033.7
20190821114309 22 341 3.2 9.7 0.00 0.00 0.00 36 1033.6
20190821114205 22 42 3.2 11.3 0.00 0.00 0.00 35 1033.7
20190821114059 22 84 3.2 11.3 0.00 0.00 0.00 35 1033.7
20190821113956 22 100 3.2 11.3 0.00 0.00 0.00 34 1033.7
20190821113852 22 115 3.2 11.3 0.00 0.00 0.00 35 1033.7
20190821113745 22 82 4.8 11.3 0.00 0.00 0.00 35 1033.7
20190821113642 22 122 4.8 11.3 0.00 0.00 0.00 35 1033.8
20190821113536 22 79 3.2 11.3 0.00 0.00 0.00 35 1033.9
20190821113433 22 115 3.2 11.3 0.00 0.00 0.00 35 1033.8
20190821113329 22 44 3.2 11.3 0.00 0.00 0.00 35 1033.8
20190821113225 22 35 3.2 12.9 0.00 0.00 0.00 36 1033.8
20190821113119 22 61 3.2 12.9 0.00 0.00 0.00 36 1033.8
20190821113015 22 123 3.2 12.9 0.00 0.00 0.00 36 1033.9
20190821112911 22 99 3.2 12.9 0.00 0.00 0.00 35 1033.9
20190821112807 22 86 3.2 12.9 0.00 0.00 0.00 36 1033.8
20190821112704 22 113 3.2 12.9 0.00 0.00 0.00 36 1033.9
20190821112558 22 67 3.2 12.9 0.00 0.00 0.00 36 1033.9
20190821112455 22 69 3.2 12.9 0.00 0.00 0.00 36 1033.9
20190821112350 22 72 3.2 12.9 0.00 0.00 0.00 36 1033.9
20190821112243 22 63 3.2 12.9 0.00 0.00 0.00 36 1033.9
20190821112138 22 116 3.2 12.9 0.00 0.00 0.00 35 1034.0
20190821112030 22 116 3.2 12.9 0.00 0.00 0.00 36 1034.0
20190821111928 22 115 3.2 12.9 0.00 0.00 0.00 35 1033.9
20190821111824 22 101 3.2 12.9 0.00 0.00 0.00 36 1034.1
20190821111719 22 106 3.2 12.9 0.00 0.00 0.00 36 1034.1
20190821111614 22 90 3.2 12.9 0.00 0.00 0.00 37 1034.0
20190821111511 22 78 3.2 12.9 0.00 0.00 0.00 37 1034.1
20190821111405 22 38 4.8 12.9 0.00 0.00 0.00 36 1034.0
20190821111258 22 107 3.2 12.9 0.00 0.00 0.00 36 1034.0
20190821111155 22 88 3.2 9.7 0.00 0.00 0.00 36 1034.1
20190821111050 22 92 3.2 9.7 0.00 0.00 0.00 35 1034.0
20190821110948 22 88 3.2 9.7 0.00 0.00 0.00 35 1034.0
20190821110842 22 76 3.2 9.7 0.00 0.00 0.00 36 1034.1
20190821110739 22 103 3.2 9.7 0.00 0.00 0.00 36 1034.1
20190821110636 22 103 3.2 9.7 0.00 0.00 0.00 36 1034.0
20190821110525 22 43 3.2 9.7 0.00 0.00 0.00 36 1034.1
20190821110423 22 19 3.2 9.7 0.00 0.00 0.00 36 1034.1
20190821110319 22 30 3.2 9.7 0.00 0.00 0.00 37 1034.2
20190821110212 22 84 3.2 9.7 0.00 0.00 0.00 37 1034.1
20190821110107 22 123 3.2 9.7 0.00 0.00 0.00 38 1034.1
20190821110002 22 78 3.2 9.7 0.00 0.00 0.00 38 1034.2
20190821105749 22 48 3.2 9.7 0.00 0.00 0.00 39 1034.2
20190821105647 22 137 3.2 9.7 0.00 0.00 0.00 38 1034.4
20190821105542 22 121 4.8 9.7 0.00 0.00 0.00 38 1034.2
20190821105436 22 84 4.8 9.7 0.00 0.00 0.00 38 1034.3
20190821105331 22 51 4.8 9.7 0.00 0.00 0.00 38 1034.2
20190821105226 22 81 4.8 9.7 0.00 0.00 0.00 38 1034.2
20190821105122 22 88 4.8 9.7 0.00 0.00 0.00 38 1034.3
20190821105016 22 86 4.8 9.7 0.00 0.00 0.00 38 1034.3
20190821104646 22 113 3.2 9.7 0.00 0.00 0.00 38 1034.3
20190821104539 22 98 3.2 9.7 0.00 0.00 0.00 38 1034.3
20190821104432 22 90 3.2 9.7 0.00 0.00 0.00 38 1034.3
20190821104329 22 96 3.2 9.7 0.00 0.00 0.00 38 1034.3
20190821104224 22 123 3.2 9.7 0.00 0.00 0.00 38 1034.3
20190821104122 22 153 3.2 8.0 0.00 0.00 0.00 38 1034.3
20190821104015 22 134 3.2 8.0 0.00 0.00 0.00 38 1034.2
20190821103913 22 98 3.2 8.0 0.00 0.00 0.00 38 1034.3
20190821103810 22 68 3.2 8.0 0.00 0.00 0.00 38 1034.2
20190821103703 22 73 3.2 6.4 0.00 0.00 0.00 38 1034.3
20190821103558 22 107 3.2 6.4 0.00 0.00 0.00 38 1034.4
20190821103450 22 45 1.6 6.4 0.00 0.00 0.00 38 1034.4
20190821103344 22 22 1.6 9.7 0.00 0.00 0.00 38 1034.3
20190821103237 22 15 1.6 9.7 0.00 0.00 0.00 38 1034.3
20190821103137 22 55 1.6 9.7 0.00 0.00 0.00 38 1034.4
20190821103029 22 71 1.6 9.7 0.00 0.00 0.00 38 1034.4
20190821102659 22 84 1.6 9.7 0.00 0.00 0.00 38 1034.3
20190821102115 22 91 1.6 9.7 0.00 0.00 0.00 39 1034.5
20190821102007 22 100 1.6 9.7 0.00 0.00 0.00 39 1034.4
20190821101901 22 64 1.6 9.7 0.00 0.00 0.00 38 1034.3
20190821101756 22 107 3.2 9.7 0.00 0.00 0.00 38 1034.4
20190821101652 22 101 1.6 9.7 0.00 0.00 0.00 38 1034.5
20190821101550 22 94 1.6 9.7 0.00 0.00 0.00 38 1034.5
20190821101444 22 94 1.6 9.7 0.00 0.00 0.00 38 1034.4
20190821101339 22 101 1.6 8.0 0.00 0.00 0.00 39 1034.5
20190821101235 22 85 3.2 8.0 0.00 0.00 0.00 38 1034.3
20190821101132 22 85 3.2 8.0 0.00 0.00 0.00 39 1034.5
20190821101028 21 65 3.2 8.0 0.00 0.00 0.00 39 1034.4
20190821100923 21 69 3.2 8.0 0.00 0.00 0.00 40 1034.4
20190821100816 21 80 1.6 9.7 0.00 0.00 0.00 40 1034.4
20190821100711 21 97 1.6 9.7 0.00 0.00 0.00 40 1034.5
20190821100604 21 98 1.6 9.7 0.00 0.00 0.00 40 1034.4
20190821100458 21 98 1.6 9.7 0.00 0.00 0.00 38 1034.4
20190821100356 21 94 1.6 9.7 0.00 0.00 0.00 38 1034.5
20190821100250 21 124 1.6 9.7 0.00 0.00 0.00 39 1034.4
20190821100145 21 31 1.6 9.7 0.00 0.00 0.00 39 1034.4
20190821100040 21 129 1.6 9.7 0.00 0.00 0.00 39 1034.5
20190821095933 21 129 1.6 9.7 0.00 0.00 0.00 40 1034.5
20190821095827 21 94 1.6 9.7 0.00 0.00 0.00 39 1034.5
20190821095720 21 103 1.6 9.7 0.00 0.00 0.00 40 1034.6
20190821095615 21 99 1.6 9.7 0.00 0.00 0.00 40 1034.6
20190821095513 21 129 1.6 9.7 0.00 0.00 0.00 40 1034.4
20190821095408 21 135 3.2 9.7 0.00 0.00 0.00 39 1034.6
20190821095301 21 103 3.2 9.7 0.00 0.00 0.00 40 1034.6
20190821095158 21 103 3.2 9.7 0.00 0.00 0.00 40 1034.6
20190821095053 21 127 3.2 9.7 0.00 0.00 0.00 39 1034.5
20190821094948 21 128 3.2 9.7 0.00 0.00 0.00 40 1034.6
20190821094843 21 87 1.6 4.8 0.00 0.00 0.00 40 1034.6
20190821094740 21 48 1.6 4.8 0.00 0.00 0.00 41 1034.6
20190821094634 21 50 1.6 4.8 0.00 0.00 0.00 41 1034.7
20190821094527 21 44 1.6 4.8 0.00 0.00 0.00 42 1034.7
20190821094422 21 76 1.6 4.8 0.00 0.00 0.00 43 1034.6
20190821094318 21 30 1.6 4.8 0.00 0.00 0.00 43 1034.6
20190821094213 20 52 1.6 4.8 0.00 0.00 0.00 43 1034.5
20190821094107 20 51 1.6 4.8 0.00 0.00 0.00 43 1034.6
20190821094000 20 49 1.6 4.8 0.00 0.00 0.00 42 1034.6
20190821093856 20 44 1.6 4.8 0.00 0.00 0.00 41 1034.6
20190821093754 20 120 1.6 8.0 0.00 0.00 0.00 40 1034.6
20190821093649 20 183 1.6 8.0 0.00 0.00 0.00 39 1034.6
20190821093543 20 151 1.6 8.0 0.00 0.00 0.00 40 1034.5
20190821093435 20 119 1.6 8.0 0.00 0.00 0.00 41 1034.6
20190821093332 20 94 1.6 8.0 0.00 0.00 0.00 41 1034.6
20190821093226 20 132 1.6 8.0 0.00 0.00 0.00 42 1034.5
20190821093120 20 174 1.6 8.0 0.00 0.00 0.00 42 1034.5
20190821093015 20 139 1.6 8.0 0.00 0.00 0.00 42 1034.7
20190821092907 20 135 1.6 8.0 0.00 0.00 0.00 42 1034.6
20190821092803 20 105 1.6 8.0 0.00 0.00 0.00 42 1034.6
20190821092658 20 85 1.6 8.0 0.00 0.00 0.00 42 1034.6
20190821092553 20 123 1.6 8.0 0.00 0.00 0.00 43 1034.7
20190821092449 20 87 1.6 8.0 0.00 0.00 0.00 44 1034.6
20190821092344 20 72 1.6 8.0 0.00 0.00 0.00 44 1034.6
20190821092240 20 87 1.6 8.0 0.00 0.00 0.00 45 1034.7
20190821092132 20 87 1.6 8.0 0.00 0.00 0.00 45 1034.7
20190821092028 20 87 1.6 8.0 0.00 0.00 0.00 45 1034.6
20190821091925 20 84 1.6 8.0 0.00 0.00 0.00 45 1034.6
20190821091817 20 84 1.6 8.0 0.00 0.00 0.00 45 1034.8
20190821091608 20 83 3.2 8.0 0.00 0.00 0.00 44 1034.7
20190821091513 20 83 1.6 8.0 0.00 0.00 0.00 45 1034.7
20190821091359 20 78 1.6 8.0 0.00 0.00 0.00 45 1034.7
20190821091252 20 113 1.6 8.0 0.00 0.00 0.00 46 1034.8
20190821091146 20 96 1.6 8.0 0.00 0.00 0.00 46 1034.7
20190821091040 20 107 1.6 8.0 0.00 0.00 0.00 46 1034.7
20190821090930 20 107 1.6 8.0 0.00 0.00 0.00 46 1034.8
20190821090825 20 120 1.6 4.8 0.00 0.00 0.00 47 1034.7
20190821090722 20 69 1.6 4.8 0.00 0.00 0.00 47 1034.8
20190821090616 20 75 1.6 4.8 0.00 0.00 0.00 48 1034.7
20190821090514 20 102 1.6 4.8 0.00 0.00 0.00 47 1034.8
20190821090410 20 102 0.0 4.8 0.00 0.00 0.00 47 1034.8
20190821090305 20 102 0.0 4.8 0.00 0.00 0.00 47 1034.8
20190821090201 20 102 0.0 4.8 0.00 0.00 0.00 48 1034.8
20190821090055 20 101 1.6 8.0 0.00 0.00 0.00 48 1034.8
20190821085953 20 101 1.6 8.0 0.00 0.00 0.00 47 1034.8
20190821085842 20 98 1.6 8.0 0.00 0.00 0.00 49 1034.8
20190821085732 20 98 1.6 8.0 0.00 0.00 0.00 50 1034.7
20190821085627 20 105 1.6 8.0 0.00 0.00 0.00 50 1034.8
20190821085524 19 105 1.6 8.0 0.00 0.00 0.00 50 1034.8
20190821085416 19 105 1.6 8.0 0.00 0.00 0.00 50 1034.7
20190821085314 19 107 1.6 8.0 0.00 0.00 0.00 49 1034.8
20190821085207 19 94 3.2 8.0 0.00 0.00 0.00 49 1034.7
20190821085100 19 103 3.2 8.0 0.00 0.00 0.00 49 1034.8
20190821084955 19 112 3.2 8.0 0.00 0.00 0.00 50 1034.9
20190821084853 19 129 1.6 8.0 0.00 0.00 0.00 50 1034.8
20190821084749 19 112 1.6 8.0 0.00 0.00 0.00 50 1034.8
20190821084633 19 112 1.6 8.0 0.00 0.00 0.00 51 1034.9
20190821084528 19 84 1.6 8.0 0.00 0.00 0.00 51 1034.8
20190821084425 19 84 1.6 8.0 0.00 0.00 0.00 51 1034.8
20190821084323 19 104 1.6 8.0 0.00 0.00 0.00 51 1034.7
20190821084221 19 106 1.6 8.0 0.00 0.00 0.00 51 1034.9
20190821084119 18 124 0.0 8.0 0.00 0.00 0.00 51 1034.8
20190821084013 18 53 0.0 3.2 0.00 0.00 0.00 52 1034.9
20190821083906 18 53 0.0 8.0 0.00 0.00 0.00 52 1034.8
20190821083758 18 103 1.6 8.0 0.00 0.00 0.00 53 1034.8
20190821083656 18 115 1.6 8.0 0.00 0.00 0.00 53 1034.9
20190821083551 18 94 0.0 8.0 0.00 0.00 0.00 53 1034.7
20190821083447 18 63 0.0 8.0 0.00 0.00 0.00 53 1034.8
20190821083341 18 0 0.0 8.0 0.00 0.00 0.00 52 1034.8
20190821083236 18 59 0.0 8.0 0.00 0.00 0.00 52 1034.8
20190821083130 18 59 1.6 8.0 0.00 0.00 0.00 54 1034.8
20190821083025 18 109 1.6 8.0 0.00 0.00 0.00 54 1034.8
20190821082918 18 109 1.6 8.0 0.00 0.00 0.00 53 1034.9
20190821082814 18 110 1.6 8.0 0.00 0.00 0.00 54 1034.7
20190821082710 18 81 1.6 8.0 0.00 0.00 0.00 54 1034.8
20190821082603 18 80 1.6 8.0 0.00 0.00 0.00 54 1034.7
20190821082456 18 96 1.6 8.0 0.00 0.00 0.00 55 1034.8
20190821082353 18 96 1.6 8.0 0.00 0.00 0.00 55 1034.8
20190821082245 18 96 1.6 8.0 0.00 0.00 0.00 55 1034.8
20190821082140 18 96 1.6 8.0 0.00 0.00 0.00 55 1034.8
20190821082032 18 99 0.0 8.0 0.00 0.00 0.00 55 1034.8
20190821081928 18 98 0.0 8.0 0.00 0.00 0.00 56 1034.8
20190821081822 18 92 0.0 4.8 0.00 0.00 0.00 56 1034.7
20190821081717 18 92 0.0 4.8 0.00 0.00 0.00 55 1034.8
20190821081610 18 92 0.0 4.8 0.00 0.00 0.00 55 1034.8
20190821081507 18 91 0.0 4.8 0.00 0.00 0.00 55 1034.7
20190821081403 18 91 0.0 4.8 0.00 0.00 0.00 56 1034.8
20190821081259 18 91 0.0 8.0 0.00 0.00 0.00 57 1034.8
20190821081156 18 85 0.0 8.0 0.00 0.00 0.00 57 1034.8
20190821081051 18 85 0.0 8.0 0.00 0.00 0.00 57 1034.8
20190821080944 18 81 0.0 8.0 0.00 0.00 0.00 58 1034.8
20190821080839 17 79 0.0 8.0 0.00 0.00 0.00 58 1034.8
20190821080728 17 101 0.0 8.0 0.00 0.00 0.00 59 1034.8
20190821080622 17 101 0.0 8.0 0.00 0.00 0.00 58 1034.8
20190821080516 17 101 0.0 8.0 0.00 0.00 0.00 59 1034.8
20190821080410 17 101 0.0 8.0 0.00 0.00 0.00 59 1034.8
20190821080307 17 101 1.6 8.0 0.00 0.00 0.00 59 1034.7
20190821080202 17 101 1.6 8.0 0.00 0.00 0.00 58 1034.7
20190821080059 17 138 1.6 8.0 0.00 0.00 0.00 58 1034.7
20190821075952 17 138 1.6 8.0 0.00 0.00 0.00 59 1034.7
20190821075848 17 138 1.6 8.0 0.00 0.00 0.00 59 1034.7
20190821075746 17 89 1.6 8.0 0.00 0.00 0.00 59 1034.8
20190821075645 17 80 1.6 8.0 0.00 0.00 0.00 59 1034.7
20190821075540 17 90 1.6 8.0 0.00 0.00 0.00 59 1034.8
20190821075435 17 84 1.6 8.0 0.00 0.00 0.00 60 1034.7
20190821075327 17 49 1.6 6.4 0.00 0.00 0.00 60 1034.7
20190821075225 17 85 1.6 6.4 0.00 0.00 0.00 60 1034.7
20190821075120 17 85 1.6 6.4 0.00 0.00 0.00 60 1034.7
20190821075016 17 86 1.6 6.4 0.00 0.00 0.00 61 1034.7
20190821074911 17 103 0.0 6.4 0.00 0.00 0.00 60 1034.7
20190821074805 17 103 0.0 6.4 0.00 0.00 0.00 60 1034.6
20190821074703 17 85 0.0 6.4 0.00 0.00 0.00 60 1034.6
20190821074556 17 80 0.0 6.4 0.00 0.00 0.00 61 1034.7
20190821074449 17 97 0.0 3.2 0.00 0.00 0.00 62 1034.8
20190821074347 17 97 0.0 3.2 0.00 0.00 0.00 62 1034.7
20190821074242 17 86 0.0 3.2 0.00 0.00 0.00 62 1034.7
20190821074140 17 90 0.0 1.6 0.00 0.00 0.00 63 1034.7
20190821074029 16 69 0.0 1.6 0.00 0.00 0.00 62 1034.7
20190821073927 16 149 0.0 0.0 0.00 0.00 0.00 62 1034.7
20190821073822 16 150 0.0 3.2 0.00 0.00 0.00 62 1034.7
20190821073715 16 150 0.0 3.2 0.00 0.00 0.00 62 1034.7
20190821073608 16 150 0.0 3.2 0.00 0.00 0.00 63 1034.8
20190821073502 16 109 0.0 3.2 0.00 0.00 0.00 63 1034.6
20190821073358 16 95 0.0 3.2 0.00 0.00 0.00 63 1034.7
20190821073256 16 96 1.6 3.2 0.00 0.00 0.00 63 1034.7
20190821073152 16 96 0.0 3.2 0.00 0.00 0.00 63 1034.7
20190821073045 16 95 1.6 3.2 0.00 0.00 0.00 63 1034.7
20190821072935 16 95 0.0 3.2 0.00 0.00 0.00 63 1034.7
20190821072828 16 95 0.0 3.2 0.00 0.00 0.00 63 1034.7
20190821072725 16 95 1.6 3.2 0.00 0.00 0.00 63 1034.8
20190821072623 16 99 0.0 3.2 0.00 0.00 0.00 63 1034.7
20190821072516 16 100 0.0 3.2 0.00 0.00 0.00 63 1034.8
20190821072412 16 139 0.0 3.2 0.00 0.00 0.00 63 1034.7
20190821072307 16 119 0.0 3.2 0.00 0.00 0.00 64 1034.8
20190821072205 16 139 0.0 3.2 0.00 0.00 0.00 64 1034.7
20190821072057 16 139 0.0 4.8 0.00 0.00 0.00 64 1034.7
20190821071953 16 139 0.0 4.8 0.00 0.00 0.00 64 1034.7
20190821071849 16 139 1.6 4.8 0.00 0.00 0.00 65 1034.6
20190821071741 16 133 1.6 4.8 0.00 0.00 0.00 65 1034.7
20190821071638 16 101 1.6 4.8 0.00 0.00 0.00 66 1034.6
20190821071534 16 102 1.6 4.8 0.00 0.00 0.00 66 1034.6
20190821071426 16 101 1.6 4.8 0.00 0.00 0.00 66 1034.7
20190821071320 16 101 1.6 4.8 0.00 0.00 0.00 66 1034.7
20190821071212 16 101 1.6 4.8 0.00 0.00 0.00 66 1034.6
20190821071106 16 103 1.6 4.8 0.00 0.00 0.00 66 1034.6
20190821071004 16 103 1.6 4.8 0.00 0.00 0.00 66 1034.7
20190821070856 15 103 0.0 4.8 0.00 0.00 0.00 67 1034.7
20190821070750 15 104 0.0 4.8 0.00 0.00 0.00 66 1034.6
20190821070644 15 132 0.0 4.8 0.00 0.00 0.00 66 1034.7
20190821070539 16 141 0.0 4.8 0.00 0.00 0.00 66 1034.7
20190821070435 16 134 0.0 4.8 0.00 0.00 0.00 67 1034.7
20190821070332 15 93 0.0 4.8 0.00 0.00 0.00 67 1034.7
20190821070230 15 93 0.0 4.8 0.00 0.00 0.00 67 1034.7
20190821070128 15 67 0.0 8.0 0.00 0.00 0.00 67 1034.7
20190821070022 15 146 0.0 8.0 0.00 0.00 0.00 67 1034.8
20190821065918 15 146 0.0 8.0 0.00 0.00 0.00 67 1034.7
20190821065812 15 91 1.6 8.0 0.00 0.00 0.00 68 1034.7
20190821065709 15 91 1.6 8.0 0.00 0.00 0.00 68 1034.7
20190821065603 15 91 1.6 8.0 0.00 0.00 0.00 68 1034.7
20190821065458 15 91 1.6 8.0 0.00 0.00 0.00 69 1034.7
20190821065351 15 94 1.6 8.0 0.00 0.00 0.00 69 1034.7
20190821065244 15 94 1.6 8.0 0.00 0.00 0.00 69 1034.7
20190821065141 15 121 1.6 8.0 0.00 0.00 0.00 69 1034.8
20190821065038 15 118 1.6 8.0 0.00 0.00 0.00 69 1034.7
20190821064935 15 119 1.6 8.0 0.00 0.00 0.00 69 1034.8
20190821064830 15 119 1.6 8.0 0.00 0.00 0.00 69 1034.8
20190821064726 15 94 1.6 8.0 0.00 0.00 0.00 69 1034.7
20190821064620 15 77 1.6 8.0 0.00 0.00 0.00 69 1034.7
20190821064517 15 115 1.6 8.0 0.00 0.00 0.00 69 1034.7
20190821064414 15 115 1.6 8.0 0.00 0.00 0.00 69 1034.7
20190821064308 15 113 1.6 8.0 0.00 0.00 0.00 69 1034.7
20190821064206 15 113 1.6 8.0 0.00 0.00 0.00 70 1034.8
20190821064100 15 120 0.0 6.4 0.00 0.00 0.00 70 1034.7
20190821063957 15 121 0.0 6.4 0.00 0.00 0.00 70 1034.8
20190821063852 15 120 0.0 6.4 0.00 0.00 0.00 70 1034.7
20190821063746 14 119 0.0 6.4 0.00 0.00 0.00 70 1034.7
20190821063640 14 119 0.0 6.4 0.00 0.00 0.00 70 1034.7
20190821063534 14 138 0.0 6.4 0.00 0.00 0.00 70 1034.7
20190821063431 14 138 1.6 6.4 0.00 0.00 0.00 70 1034.8
20190821063328 14 138 1.6 6.4 0.00 0.00 0.00 70 1034.7
20190821063224 14 96 0.0 6.4 0.00 0.00 0.00 71 1034.8
20190821063121 14 94 1.6 6.4 0.00 0.00 0.00 71 1034.8
20190821063018 14 126 1.6 6.4 0.00 0.00 0.00 70 1034.8
20190821062916 14 132 1.6 6.4 0.00 0.00 0.00 70 1034.8
20190821062812 14 126 1.6 6.4 0.00 0.00 0.00 71 1034.8
20190821062710 14 135 1.6 6.4 0.00 0.00 0.00 70 1034.8
20190821062607 14 135 1.6 6.4 0.00 0.00 0.00 71 1034.8
20190821062503 14 131 1.6 6.4 0.00 0.00 0.00 71 1034.8
20190821062400 14 93 1.6 6.4 0.00 0.00 0.00 71 1034.8
20190821062257 14 82 1.6 6.4 0.00 0.00 0.00 71 1034.8
20190821062152 14 84 1.6 6.4 0.00 0.00 0.00 71 1034.8
20190821062045 14 128 1.6 4.8 0.00 0.00 0.00 71 1034.8
20190821061939 14 127 1.6 8.0 0.00 0.00 0.00 71 1034.7
20190821061833 14 69 1.6 8.0 0.00 0.00 0.00 71 1034.7
20190821061726 14 73 1.6 8.0 0.00 0.00 0.00 71 1034.8
20190821061619 14 101 1.6 8.0 0.00 0.00 0.00 71 1034.7
20190821061514 14 99 1.6 8.0 0.00 0.00 0.00 71 1034.8
20190821061410 14 137 1.6 8.0 0.00 0.00 0.00 71 1034.8
20190821061303 14 140 1.6 8.0 0.00 0.00 0.00 71 1034.7
20190821061158 14 93 1.6 8.0 0.00 0.00 0.00 72 1034.6
20190821061053 14 86 1.6 8.0 0.00 0.00 0.00 72 1034.7
20190821060947 14 120 1.6 8.0 0.00 0.00 0.00 72 1034.7
20190821060841 14 86 1.6 8.0 0.00 0.00 0.00 72 1034.6
20190821060738 14 96 1.6 8.0 0.00 0.00 0.00 72 1034.7
20190821060634 14 96 1.6 8.0 0.00 0.00 0.00 71 1034.7
20190821060532 14 101 1.6 8.0 0.00 0.00 0.00 72 1034.6
20190821060427 14 150 1.6 8.0 0.00 0.00 0.00 72 1034.6
20190821060321 14 103 1.6 8.0 0.00 0.00 0.00 72 1034.7
20190821060218 14 85 1.6 8.0 0.00 0.00 0.00 72 1034.7
20190821060114 14 82 1.6 8.0 0.00 0.00 0.00 72 1034.7
20190821060010 14 71 1.6 8.0 0.00 0.00 0.00 72 1034.6
20190821055908 13 138 1.6 8.0 0.00 0.00 0.00 73 1034.6
20190821055806 13 86 1.6 8.0 0.00 0.00 0.00 73 1034.6
20190821055702 13 82 1.6 8.0 0.00 0.00 0.00 73 1034.6
20190821055557 13 76 1.6 8.0 0.00 0.00 0.00 73 1034.6
20190821055451 13 76 1.6 8.0 0.00 0.00 0.00 73 1034.6
20190821055344 13 76 1.6 8.0 0.00 0.00 0.00 73 1034.5
20190821055237 13 99 1.6 8.0 0.00 0.00 0.00 73 1034.6
20190821055133 13 95 1.6 8.0 0.00 0.00 0.00 72 1034.4
20190821055031 13 92 1.6 8.0 0.00 0.00 0.00 73 1034.5
20190821054928 13 113 1.6 4.8 0.00 0.00 0.00 73 1034.5
20190821054825 13 113 1.6 4.8 0.00 0.00 0.00 73 1034.5
20190821054721 13 113 1.6 4.8 0.00 0.00 0.00 73 1034.5
20190821054615 13 113 0.0 4.8 0.00 0.00 0.00 73 1034.5
20190821054508 13 113 1.6 4.8 0.00 0.00 0.00 73 1034.5
20190821054405 13 113 1.6 4.8 0.00 0.00 0.00 73 1034.4
20190821054258 13 113 1.6 4.8 0.00 0.00 0.00 73 1034.5
20190821054152 13 113 1.6 4.8 0.00 0.00 0.00 73 1034.5
20190821054047 13 113 1.6 4.8 0.00 0.00 0.00 73 1034.5
20190821053940 13 113 0.0 4.8 0.00 0.00 0.00 73 1034.5
20190821053833 13 78 0.0 4.8 0.00 0.00 0.00 73 1034.5
20190821053727 13 76 0.0 4.8 0.00 0.00 0.00 73 1034.3
20190821053623 13 76 0.0 4.8 0.00 0.00 0.00 73 1034.5
20190821053521 13 136 0.0 4.8 0.00 0.00 0.00 73 1034.4
20190821053417 13 116 0.0 4.8 0.00 0.00 0.00 73 1034.4
20190821053312 13 103 0.0 4.8 0.00 0.00 0.00 73 1034.3
20190821053209 13 173 0.0 3.2 0.00 0.00 0.00 73 1034.5
20190821053105 13 173 0.0 3.2 0.00 0.00 0.00 73 1034.4
20190821052959 13 173 0.0 3.2 0.00 0.00 0.00 73 1034.4
20190821052853 13 173 0.0 3.2 0.00 0.00 0.00 73 1034.4
20190821052748 13 173 0.0 3.2 0.00 0.00 0.00 73 1034.4
20190821052643 13 173 0.0 3.2 0.00 0.00 0.00 73 1034.3
20190821052540 13 173 0.0 3.2 0.00 0.00 0.00 73 1034.4
20190821052435 13 173 0.0 3.2 0.00 0.00 0.00 73 1034.3
20190821052328 13 150 0.0 3.2 0.00 0.00 0.00 73 1034.3
20190821052226 13 154 0.0 4.8 0.00 0.00 0.00 73 1034.3
20190821052123 13 154 0.0 4.8 0.00 0.00 0.00 73 1034.4
20190821052020 13 154 0.0 4.8 0.00 0.00 0.00 73 1034.3
20190821051918 13 154 0.0 4.8 0.00 0.00 0.00 73 1034.3
20190821051813 13 155 0.0 4.8 0.00 0.00 0.00 73 1034.3
20190821051711 13 155 0.0 4.8 0.00 0.00 0.00 73 1034.4
20190821051603 13 155 1.6 4.8 0.00 0.00 0.00 73 1034.3
20190821051458 13 148 1.6 4.8 0.00 0.00 0.00 73 1034.2
20190821051356 13 148 1.6 4.8 0.00 0.00 0.00 73 1034.3
20190821051251 13 147 1.6 4.8 0.00 0.00 0.00 73 1034.2
20190821051143 13 146 1.6 4.8 0.00 0.00 0.00 73 1034.2
20190821051036 13 147 1.6 4.8 0.00 0.00 0.00 73 1034.2
20190821050931 13 111 1.6 4.8 0.00 0.00 0.00 73 1034.3
20190821050827 13 111 1.6 4.8 0.00 0.00 0.00 73 1034.2
20190821050722 13 138 1.6 4.8 0.00 0.00 0.00 73 1034.3
20190821050615 13 137 1.6 4.8 0.00 0.00 0.00 73 1034.2
20190821050514 13 137 1.6 4.8 0.00 0.00 0.00 73 1034.3
20190821050411 13 138 1.6 4.8 0.00 0.00 0.00 73 1034.3
20190821050309 13 140 0.0 3.2 0.00 0.00 0.00 73 1034.2
20190821050203 13 149 0.0 3.2 0.00 0.00 0.00 73 1034.2
20190821050055 13 149 0.0 3.2 0.00 0.00 0.00 73 1034.2
20190821045950 13 132 0.0 3.2 0.00 0.00 0.00 73 1034.2
20190821045846 13 132 1.6 3.2 0.00 0.00 0.00 73 1034.2
20190821045740 13 132 1.6 3.2 0.00 0.00 0.00 73 1034.1
20190821045637 13 132 1.6 3.2 0.00 0.00 0.00 73 1034.3
20190821045530 13 129 0.0 3.2 0.00 0.00 0.00 73 1034.1
20190821045428 13 128 0.0 3.2 0.00 0.00 0.00 73 1034.1
20190821045321 13 128 0.0 3.2 0.00 0.00 0.00 73 1034.2
20190821045214 13 128 0.0 4.8 0.00 0.00 0.00 73 1034.3
20190821045108 13 128 0.0 4.8 0.00 0.00 0.00 73 1034.1
20190821045000 13 128 0.0 4.8 0.00 0.00 0.00 73 1034.0
20190821044855 13 128 0.0 4.8 0.00 0.00 0.00 73 1034.1
20190821044753 13 128 0.0 4.8 0.00 0.00 0.00 73 1034.1
20190821044646 13 128 0.0 4.8 0.00 0.00 0.00 73 1034.1
20190821044540 13 128 0.0 4.8 0.00 0.00 0.00 73 1034.1
20190821044437 13 128 0.0 4.8 0.00 0.00 0.00 73 1034.1
20190821044332 13 128 0.0 4.8 0.00 0.00 0.00 73 1034.0
20190821044227 13 128 0.0 8.0 0.00 0.00 0.00 73 1034.2
20190821044122 13 127 0.0 8.0 0.00 0.00 0.00 73 1034.1
20190821044017 13 127 0.0 8.0 0.00 0.00 0.00 73 1034.1
20190821043914 13 127 0.0 8.0 0.00 0.00 0.00 73 1034.0
20190821043807 13 127 1.6 8.0 0.00 0.00 0.00 73 1034.1
20190821043701 13 127 1.6 8.0 0.00 0.00 0.00 73 1034.0
20190821043555 13 127 1.6 8.0 0.00 0.00 0.00 73 1034.1
20190821043451 13 127 1.6 8.0 0.00 0.00 0.00 73 1034.0
20190821043346 13 127 1.6 8.0 0.00 0.00 0.00 73 1034.1
20190821043240 13 171 1.6 8.0 0.00 0.00 0.00 73 1034.2
20190821043138 13 171 3.2 9.7 0.00 0.00 0.00 73 1034.1
20190821043031 13 178 3.2 9.7 0.00 0.00 0.00 73 1034.1
20190821042927 13 157 3.2 9.7 0.00 0.00 0.00 73 1034.0
20190821042825 13 157 3.2 9.7 0.00 0.00 0.00 73 1034.0
20190821042719 13 157 3.2 9.7 0.00 0.00 0.00 74 1034.1
20190821042612 13 131 3.2 9.7 0.00 0.00 0.00 74 1034.0
20190821042506 13 121 3.2 9.7 0.00 0.00 0.00 74 1034.0
20190821042401 13 112 1.6 9.7 0.00 0.00 0.00 74 1033.9
20190821042255 13 109 1.6 9.7 0.00 0.00 0.00 74 1033.9
20190821042147 13 126 1.6 9.7 0.00 0.00 0.00 74 1034.0
20190821042042 13 129 1.6 9.7 0.00 0.00 0.00 74 1034.0
20190821041938 13 128 1.6 9.7 0.00 0.00 0.00 74 1033.9
20190821041834 13 150 1.6 9.7 0.00 0.00 0.00 74 1033.9
20190821041731 13 117 1.6 9.7 0.00 0.00 0.00 74 1033.9
20190821041625 13 152 1.6 9.7 0.00 0.00 0.00 74 1033.8
20190821041519 13 151 1.6 9.7 0.00 0.00 0.00 75 1033.8
20190821041412 13 149 1.6 9.7 0.00 0.00 0.00 75 1033.9
20190821041310 13 148 0.0 9.7 0.00 0.00 0.00 75 1033.9
20190821041203 13 150 0.0 4.8 0.00 0.00 0.00 75 1033.8
20190821041057 13 150 0.0 4.8 0.00 0.00 0.00 75 1033.8
20190821040950 13 113 0.0 4.8 0.00 0.00 0.00 75 1033.9
20190821040843 13 113 0.0 4.8 0.00 0.00 0.00 75 1033.8
20190821040737 13 129 0.0 4.8 0.00 0.00 0.00 75 1033.8
20190821040633 13 112 0.0 4.8 0.00 0.00 0.00 75 1033.9
20190821040528 13 111 0.0 0.0 0.00 0.00 0.00 75 1033.8
20190821040421 13 111 0.0 4.8 0.00 0.00 0.00 75 1033.7
20190821040318 13 111 0.0 4.8 0.00 0.00 0.00 75 1033.7
20190821040213 13 111 0.0 4.8 0.00 0.00 0.00 75 1033.6
20190821040111 13 111 0.0 4.8 0.00 0.00 0.00 75 1033.8
20190821040005 13 111 0.0 4.8 0.00 0.00 0.00 75 1033.7
20190821035859 13 111 0.0 4.8 0.00 0.00 0.00 75 1033.7
20190821035755 13 111 0.0 4.8 0.00 0.00 0.00 75 1033.7
20190821035648 13 111 1.6 4.8 0.00 0.00 0.00 75 1033.7
20190821035546 13 111 1.6 4.8 0.00 0.00 0.00 75 1033.7
20190821035442 13 111 1.6 4.8 0.00 0.00 0.00 75 1033.7
20190821035336 13 113 1.6 4.8 0.00 0.00 0.00 75 1033.6
20190821035230 13 113 1.6 4.8 0.00 0.00 0.00 75 1033.6
20190821035128 13 113 1.6 4.8 0.00 0.00 0.00 75 1033.7
20190821035021 13 113 1.6 4.8 0.00 0.00 0.00 75 1033.6
20190821034918 13 109 1.6 4.8 0.00 0.00 0.00 75 1033.6
20190821034814 13 109 1.6 4.8 0.00 0.00 0.00 75 1033.7
20190821034712 13 109 1.6 4.8 0.00 0.00 0.00 75 1033.7
20190821034605 13 109 0.0 4.8 0.00 0.00 0.00 75 1033.6
20190821034457 13 109 0.0 4.8 0.00 0.00 0.00 75 1033.6
20190821034349 13 109 0.0 4.8 0.00 0.00 0.00 75 1033.5
20190821034246 13 109 0.0 4.8 0.00 0.00 0.00 75 1033.5
20190821034141 13 109 0.0 4.8 0.00 0.00 0.00 75 1033.5
20190821034035 13 109 0.0 4.8 0.00 0.00 0.00 75 1033.5
20190821033927 13 109 0.0 4.8 0.00 0.00 0.00 75 1033.6
20190821033824 13 107 0.0 3.2 0.00 0.00 0.00 75 1033.5
20190821033716 13 107 0.0 3.2 0.00 0.00 0.00 75 1033.5
20190821033612 13 107 0.0 3.2 0.00 0.00 0.00 75 1033.5
20190821033508 13 107 0.0 3.2 0.00 0.00 0.00 74 1033.5
20190821033401 13 107 0.0 3.2 0.00 0.00 0.00 75 1033.5
20190821033257 13 107 0.0 3.2 0.00 0.00 0.00 74 1033.4
20190821033150 13 107 0.0 3.2 0.00 0.00 0.00 74 1033.5
20190821033042 13 107 0.0 3.2 0.00 0.00 0.00 74 1033.5
20190821032936 13 107 0.0 3.2 0.00 0.00 0.00 74 1033.6
20190821032834 13 107 0.0 3.2 0.00 0.00 0.00 74 1033.5
20190821032727 13 107 0.0 3.2 0.00 0.00 0.00 74 1033.5
20190821032625 13 107 0.0 3.2 0.00 0.00 0.00 74 1033.5
20190821032521 13 107 0.0 3.2 0.00 0.00 0.00 74 1033.5
20190821032415 13 107 1.6 3.2 0.00 0.00 0.00 74 1033.4
20190821032310 13 107 1.6 3.2 0.00 0.00 0.00 74 1033.5
20190821032205 13 107 1.6 3.2 0.00 0.00 0.00 74 1033.5
20190821032103 13 107 0.0 3.2 0.00 0.00 0.00 74 1033.5
20190821031957 13 107 0.0 3.2 0.00 0.00 0.00 74 1033.4
20190821031850 13 107 0.0 3.2 0.00 0.00 0.00 74 1033.4
20190821031747 13 107 0.0 3.2 0.00 0.00 0.00 74 1033.4
20190821031642 13 107 0.0 3.2 0.00 0.00 0.00 74 1033.4
20190821031539 13 123 0.0 3.2 0.00 0.00 0.00 74 1033.5
20190821031435 13 123 0.0 3.2 0.00 0.00 0.00 74 1033.5
20190821031329 13 123 0.0 3.2 0.00 0.00 0.00 74 1033.4
20190821031226 13 142 0.0 3.2 0.00 0.00 0.00 74 1033.3
20190821031121 13 142 0.0 3.2 0.00 0.00 0.00 74 1033.3
20190821031014 13 142 0.0 3.2 0.00 0.00 0.00 74 1033.3
20190821030907 13 142 0.0 3.2 0.00 0.00 0.00 74 1033.4
20190821030805 13 142 1.6 3.2 0.00 0.00 0.00 74 1033.4
20190821030700 13 142 1.6 3.2 0.00 0.00 0.00 74 1033.4
20190821030557 13 142 0.0 3.2 0.00 0.00 0.00 74 1033.4
20190821030451 13 128 1.6 3.2 0.00 0.00 0.00 73 1033.3
20190821030349 13 128 0.0 3.2 0.00 0.00 0.00 73 1033.4
20190821030241 13 128 0.0 3.2 0.00 0.00 0.00 73 1033.4
20190821030135 13 128 0.0 3.2 0.00 0.00 0.00 73 1033.3
20190821030030 14 128 0.0 3.2 0.00 0.00 0.00 73 1033.4
20190821025925 14 128 0.0 3.2 0.00 0.00 0.00 73 1033.4
20190821025819 14 128 0.0 3.2 0.00 0.00 0.00 73 1033.3
20190821025711 14 145 0.0 1.6 0.00 0.00 0.00 73 1033.3
20190821025605 14 145 0.0 1.6 0.00 0.00 0.00 73 1033.4
20190821025501 14 145 0.0 1.6 0.00 0.00 0.00 73 1033.4
20190821025355 14 145 0.0 1.6 0.00 0.00 0.00 73 1033.3
20190821025248 14 145 0.0 1.6 0.00 0.00 0.00 73 1033.3
20190821025142 14 145 0.0 1.6 0.00 0.00 0.00 73 1033.4
20190821025038 14 145 0.0 3.2 0.00 0.00 0.00 72 1033.3
20190821024932 14 145 0.0 3.2 0.00 0.00 0.00 72 1033.5
20190821024829 14 146 0.0 3.2 0.00 0.00 0.00 72 1033.3
20190821024724 14 145 0.0 3.2 0.00 0.00 0.00 72 1033.3
20190821024618 14 145 0.0 3.2 0.00 0.00 0.00 72 1033.4
20190821024510 14 145 0.0 3.2 0.00 0.00 0.00 72 1033.3
20190821024405 14 146 0.0 3.2 0.00 0.00 0.00 72 1033.3
20190821024300 14 146 0.0 3.2 0.00 0.00 0.00 72 1033.4
20190821024153 14 145 0.0 3.2 0.00 0.00 0.00 72 1033.4
20190821024045 14 145 0.0 3.2 0.00 0.00 0.00 72 1033.3
20190821023942 14 145 0.0 3.2 0.00 0.00 0.00 71 1033.3
20190821023838 14 146 0.0 3.2 0.00 0.00 0.00 71 1033.3
20190821023735 14 145 0.0 3.2 0.00 0.00 0.00 71 1033.3
20190821023631 14 145 0.0 3.2 0.00 0.00 0.00 71 1033.3
20190821023528 14 145 0.0 3.2 0.00 0.00 0.00 71 1033.3
20190821023424 14 150 0.0 3.2 0.00 0.00 0.00 71 1033.4
20190821023320 14 165 0.0 1.6 0.00 0.00 0.00 70 1033.3
20190821023217 14 165 0.0 1.6 0.00 0.00 0.00 70 1033.4
20190821023114 14 165 0.0 1.6 0.00 0.00 0.00 70 1033.3
20190821023012 14 165 0.0 1.6 0.00 0.00 0.00 70 1033.3
20190821022908 14 165 0.0 1.6 0.00 0.00 0.00 70 1033.4
20190821022801 15 165 0.0 1.6 0.00 0.00 0.00 69 1033.3
20190821022656 15 165 0.0 1.6 0.00 0.00 0.00 69 1033.3
20190821022551 15 165 0.0 1.6 0.00 0.00 0.00 69 1033.3
20190821022443 15 165 0.0 1.6 0.00 0.00 0.00 69 1033.3
20190821022338 15 165 0.0 1.6 0.00 0.00 0.00 69 1033.3
20190821022234 15 266 0.0 1.6 0.00 0.00 0.00 69 1033.4
20190821022131 15 266 0.0 1.6 0.00 0.00 0.00 69 1033.3
20190821022025 15 267 0.0 0.0 0.00 0.00 0.00 69 1033.3
20190821021919 15 267 0.0 0.0 0.00 0.00 0.00 69 1033.4
20190821021817 15 267 0.0 0.0 0.00 0.00 0.00 69 1033.4
20190821021714 15 267 0.0 0.0 0.00 0.00 0.00 68 1033.4
20190821021611 15 267 0.0 0.0 0.00 0.00 0.00 68 1033.3
20190821021504 15 267 0.0 0.0 0.00 0.00 0.00 68 1033.4
20190821021402 15 267 0.0 0.0 0.00 0.00 0.00 68 1033.2
20190821021258 15 267 0.0 0.0 0.00 0.00 0.00 68 1033.3
20190821021156 15 267 0.0 0.0 0.00 0.00 0.00 68 1033.3
20190821021052 15 267 0.0 0.0 0.00 0.00 0.00 68 1033.3
20190821020947 15 267 0.0 0.0 0.00 0.00 0.00 68 1033.2
20190821020840 15 267 0.0 0.0 0.00 0.00 0.00 68 1033.3
20190821020733 15 267 0.0 0.0 0.00 0.00 0.00 68 1033.3
20190821020629 15 267 0.0 1.6 0.00 0.00 0.00 68 1033.4
20190821020526 15 267 0.0 1.6 0.00 0.00 0.00 68 1033.3
20190821020418 15 267 0.0 1.6 0.00 0.00 0.00 68 1033.3
20190821020311 15 267 0.0 1.6 0.00 0.00 0.00 68 1033.2
20190821020207 15 267 0.0 1.6 0.00 0.00 0.00 68 1033.2
20190821020103 15 267 0.0 1.6 0.00 0.00 0.00 67 1033.2
20190821015959 15 267 0.0 1.6 0.00 0.00 0.00 67 1033.3
20190821015852 15 267 0.0 1.6 0.00 0.00 0.00 67 1033.3
20190821015745 15 267 0.0 1.6 0.00 0.00 0.00 67 1033.2
20190821015641 15 267 0.0 1.6 0.00 0.00 0.00 66 1033.2
20190821015539 15 267 0.0 1.6 0.00 0.00 0.00 66 1033.3
20190821015435 15 267 0.0 1.6 0.00 0.00 0.00 66 1033.2
20190821015332 15 267 0.0 1.6 0.00 0.00 0.00 65 1033.2
20190821015229 15 267 0.0 1.6 0.00 0.00 0.00 64 1033.2
20190821015123 15 267 0.0 0.0 0.00 0.00 0.00 64 1033.1
20190821015016 15 267 0.0 0.0 0.00 0.00 0.00 64 1033.2
20190821014914 15 267 0.0 0.0 0.00 0.00 0.00 64 1033.2
20190821014806 15 267 0.0 0.0 0.00 0.00 0.00 64 1033.2
20190821014659 15 267 0.0 0.0 0.00 0.00 0.00 64 1033.2
20190821014557 15 267 0.0 0.0 0.00 0.00 0.00 64 1033.2
20190821014451 15 267 0.0 0.0 0.00 0.00 0.00 64 1033.3
20190821014346 15 267 0.0 0.0 0.00 0.00 0.00 64 1033.2
20190821014241 15 267 0.0 0.0 0.00 0.00 0.00 64 1033.1
20190821014136 15 267 0.0 0.0 0.00 0.00 0.00 64 1033.3
20190821014030 15 267 0.0 0.0 0.00 0.00 0.00 64 1033.2
20190821013924 15 267 0.0 0.0 0.00 0.00 0.00 64 1033.2
20190821013818 15 267 0.0 0.0 0.00 0.00 0.00 63 1033.2
20190821013712 15 267 0.0 0.0 0.00 0.00 0.00 63 1033.2
20190821013605 15 267 0.0 0.0 0.00 0.00 0.00 63 1033.2
20190821013502 15 267 0.0 0.0 0.00 0.00 0.00 63 1033.1
20190821013355 15 267 0.0 0.0 0.00 0.00 0.00 63 1033.2
20190821013250 15 267 0.0 0.0 0.00 0.00 0.00 63 1033.2
20190821013145 15 267 0.0 0.0 0.00 0.00 0.00 63 1033.1
20190821013042 15 267 0.0 0.0 0.00 0.00 0.00 63 1033.1
20190821012938 15 267 0.0 0.0 0.00 0.00 0.00 63 1033.1
20190821012830 15 267 0.0 0.0 0.00 0.00 0.00 63 1033.2
20190821012724 15 267 0.0 0.0 0.00 0.00 0.00 63 1033.1
20190821012619 15 267 0.0 0.0 0.00 0.00 0.00 63 1033.1
20190821012512 15 267 0.0 0.0 0.00 0.00 0.00 63 1033.1
20190821012407 15 267 0.0 0.0 0.00 0.00 0.00 63 1033.1
20190821012302 15 267 0.0 0.0 0.00 0.00 0.00 63 1033.1
20190821012155 15 267 0.0 0.0 0.00 0.00 0.00 63 1033.1
20190821012050 15 267 0.0 0.0 0.00 0.00 0.00 63 1033.1
20190821011946 15 267 0.0 0.0 0.00 0.00 0.00 63 1033.1
20190821011841 15 267 0.0 0.0 0.00 0.00 0.00 63 1033.1
20190821011738 15 267 0.0 0.0 0.00 0.00 0.00 63 1033.1
20190821011636 15 267 0.0 0.0 0.00 0.00 0.00 63 1033.1
20190821011530 15 267 0.0 0.0 0.00 0.00 0.00 63 1033.1
20190821011424 15 267 0.0 0.0 0.00 0.00 0.00 63 1033.1
20190821011321 15 267 0.0 0.0 0.00 0.00 0.00 63 1033.1
20190821011217 15 267 0.0 0.0 0.00 0.00 0.00 63 1033.0
20190821011110 15 267 0.0 0.0 0.00 0.00 0.00 63 1033.2
20190821011005 15 267 0.0 0.0 0.00 0.00 0.00 63 1033.2
20190821010901 15 267 0.0 0.0 0.00 0.00 0.00 62 1033.1
20190821010756 15 267 0.0 0.0 0.00 0.00 0.00 62 1033.0
20190821010652 15 267 0.0 0.0 0.00 0.00 0.00 62 1033.1
20190821010544 15 267 0.0 0.0 0.00 0.00 0.00 62 1033.1
20190821010439 15 267 0.0 0.0 0.00 0.00 0.00 62 1033.1
20190821010333 15 267 0.0 0.0 0.00 0.00 0.00 63 1033.1
20190821010229 15 267 0.0 0.0 0.00 0.00 0.00 63 1033.1
20190821010125 15 267 0.0 0.0 0.00 0.00 0.00 63 1033.0
20190821010022 15 267 0.0 0.0 0.00 0.00 0.00 63 1033.1
20190821005917 15 267 0.0 0.0 0.00 0.00 0.00 63 1033.1
20190821005813 15 267 0.0 0.0 0.00 0.00 0.00 63 1033.2
20190821005710 15 267 0.0 0.0 0.00 0.00 0.00 63 1033.1
20190821005607 15 267 0.0 0.0 0.00 0.00 0.00 63 1033.1
20190821005505 15 267 0.0 0.0 0.00 0.00 0.00 63 1033.1
20190821005403 15 267 0.0 0.0 0.00 0.00 0.00 63 1033.1
20190821005259 15 267 0.0 0.0 0.00 0.00 0.00 63 1033.2
20190821005154 15 267 0.0 0.0 0.00 0.00 0.00 63 1033.0
20190821005050 15 267 0.0 0.0 0.00 0.00 0.00 63 1033.1
20190821004947 15 267 0.0 0.0 0.00 0.00 0.00 63 1033.1
20190821004840 15 267 0.0 0.0 0.00 0.00 0.00 63 1033.0
20190821004733 15 267 0.0 1.6 0.00 0.00 0.00 63 1033.0
20190821004626 16 267 0.0 1.6 0.00 0.00 0.00 63 1033.0
20190821004523 16 267 0.0 1.6 0.00 0.00 0.00 63 1033.0
20190821004419 16 267 0.0 1.6 0.00 0.00 0.00 63 1033.1
20190821004315 16 267 0.0 1.6 0.00 0.00 0.00 63 1033.0
20190821004212 16 267 0.0 1.6 0.00 0.00 0.00 62 1033.1
20190821004109 16 267 0.0 1.6 0.00 0.00 0.00 62 1033.1
20190821004006 16 267 0.0 1.6 0.00 0.00 0.00 62 1033.1
20190821003900 16 267 0.0 1.6 0.00 0.00 0.00 62 1033.1
20190821003755 16 267 0.0 1.6 0.00 0.00 0.00 62 1033.1
20190821003652 16 267 0.0 1.6 0.00 0.00 0.00 61 1033.1
20190821003547 16 267 0.0 1.6 0.00 0.00 0.00 61 1033.1
20190821003440 16 267 0.0 1.6 0.00 0.00 0.00 61 1033.1
20190821003335 16 267 0.0 1.6 0.00 0.00 0.00 61 1033.0
20190821003229 16 267 0.0 3.2 0.00 0.00 0.00 61 1033.0
20190821003121 16 267 0.0 3.2 0.00 0.00 0.00 61 1033.0
20190821003016 16 267 0.0 3.2 0.00 0.00 0.00 61 1033.0
20190821002909 16 267 0.0 3.2 0.00 0.00 0.00 61 1033.0
20190821002805 16 267 0.0 3.2 0.00 0.00 0.00 61 1032.9
20190821002700 16 267 0.0 3.2 0.00 0.00 0.00 61 1033.0
20190821002557 16 267 0.0 3.2 0.00 0.00 0.00 61 1033.0
20190821002452 16 267 0.0 3.2 0.00 0.00 0.00 61 1032.9
20190821002346 16 267 0.0 3.2 0.00 0.00 0.00 61 1033.0
20190821002243 16 267 0.0 3.2 0.00 0.00 0.00 61 1032.9
20190821002141 16 267 0.0 3.2 0.00 0.00 0.00 61 1032.9
20190821002034 16 267 0.0 3.2 0.00 0.00 0.00 61 1032.9
20190821001931 16 267 0.0 3.2 0.00 0.00 0.00 61 1032.9
20190821001826 16 267 0.0 3.2 0.00 0.00 0.00 61 1032.9
20190821001722 16 267 0.0 3.2 0.00 0.00 0.00 61 1033.0
20190821001615 16 267 0.0 3.2 0.00 0.00 0.00 61 1033.0
20190821001510 16 267 0.0 3.2 0.00 0.00 0.00 61 1033.0
20190821001408 16 267 0.0 3.2 0.00 0.00 0.00 60 1032.9
20190821001303 16 267 0.0 3.2 0.00 0.00 0.00 60 1032.9
20190821001200 16 267 0.0 1.6 0.00 0.00 0.00 60 1032.9
20190821001057 16 267 0.0 1.6 0.00 0.00 0.00 61 1032.9
20190821000954 16 267 0.0 1.6 0.00 0.00 0.00 61 1032.9
20190821000849 16 267 0.0 1.6 0.00 0.00 0.00 61 1033.0
20190821000744 16 267 0.0 1.6 0.00 0.00 0.00 61 1032.9
20190821000641 16 267 0.0 1.6 0.00 0.00 0.00 61 1032.8
20190821000539 16 267 0.0 1.6 0.00 0.00 0.00 61 1032.9
20190821000432 16 267 0.0 0.0 0.00 0.00 0.00 61 1032.9
20190821000329 16 267 0.0 0.0 0.00 0.00 0.00 61 1032.9
20190821000225 16 267 0.0 0.0 0.00 0.00 0.00 61 1032.9
20190821000120 16 267 0.0 0.0 0.00 0.00 0.00 61 1032.8
20190821000015 16 267 0.0 0.0 0.00 0.00 0.00 61 1032.9
20190820235911 16 267 0.0 0.0 0.00 0.00 0.00 61 1032.8
20190820235806 16 267 0.0 1.6 0.00 0.00 0.00 61 1032.8
20190820235701 16 267 0.0 1.6 0.00 0.00 0.00 61 1032.8
20190820235559 16 267 0.0 1.6 0.00 0.00 0.00 61 1032.8
20190820235451 16 267 0.0 1.6 0.00 0.00 0.00 61 1032.8
20190820235349 16 267 0.0 1.6 0.00 0.00 0.00 61 1032.7
20190820235242 16 267 0.0 1.6 0.00 0.00 0.00 61 1032.8
20190820235135 16 267 0.0 1.6 0.00 0.00 0.00 61 1032.8
20190820235029 16 267 0.0 1.6 0.00 0.00 0.00 61 1032.8
20190820234924 16 267 0.0 1.6 0.00 0.00 0.00 61 1032.7
20190820234822 16 267 0.0 1.6 0.00 0.00 0.00 61 1032.8
20190820234715 16 267 0.0 1.6 0.00 0.00 0.00 61 1032.8
20190820234609 16 267 0.0 1.6 0.00 0.00 0.00 60 1032.7
20190820234505 16 267 0.0 1.6 0.00 0.00 0.00 60 1032.8
20190820234358 16 267 0.0 1.6 0.00 0.00 0.00 60 1032.8
20190820234255 16 267 0.0 1.6 0.00 0.00 0.00 60 1032.8
20190820234151 16 267 0.0 1.6 0.00 0.00 0.00 60 1032.8
20190820234045 16 267 0.0 1.6 0.00 0.00 0.00 60 1032.7
20190820233943 16 267 0.0 1.6 0.00 0.00 0.00 59 1032.8
20190820233841 16 267 0.0 1.6 0.00 0.00 0.00 59 1032.8
20190820233735 16 267 0.0 1.6 0.00 0.00 0.00 59 1032.8
20190820233628 16 267 0.0 1.6 0.00 0.00 0.00 59 1032.8
20190820233523 16 267 0.0 1.6 0.00 0.00 0.00 59 1032.8
20190820233419 16 267 0.0 1.6 0.00 0.00 0.00 59 1032.8
20190820233312 16 267 0.0 1.6 0.00 0.00 0.00 59 1032.8
20190820233206 16 267 0.0 4.8 0.00 0.00 0.00 59 1032.8
20190820233102 16 267 0.0 4.8 0.00 0.00 0.00 59 1032.8
20190820233000 16 267 0.0 4.8 0.00 0.00 0.00 59 1032.8
20190820232858 16 267 0.0 4.8 0.00 0.00 0.00 59 1032.8
20190820232751 16 267 0.0 4.8 0.00 0.00 0.00 59 1032.8
20190820232646 16 267 0.0 4.8 0.00 0.00 0.00 59 1032.7
20190820232542 16 267 0.0 4.8 0.00 0.00 0.00 59 1032.8
20190820232436 16 267 1.6 4.8 0.00 0.00 0.00 58 1032.7
20190820232334 16 267 1.6 4.8 0.00 0.00 0.00 58 1032.6
20190820232230 16 267 1.6 4.8 0.00 0.00 0.00 58 1032.8
20190820232126 16 267 1.6 4.8 0.00 0.00 0.00 59 1032.5
20190820232019 16 267 1.6 4.8 0.00 0.00 0.00 59 1032.7
20190820231917 16 267 1.6 4.8 0.00 0.00 0.00 59 1032.7
20190820231811 16 293 1.6 4.8 0.00 0.00 0.00 59 1032.8
20190820231705 16 263 1.6 4.8 0.00 0.00 0.00 59 1032.8
20190820231559 16 295 1.6 4.8 0.00 0.00 0.00 59 1032.7
20190820231452 16 284 1.6 4.8 0.00 0.00 0.00 59 1032.8
20190820231348 16 280 1.6 4.8 0.00 0.00 0.00 59 1032.6
20190820231243 16 286 0.0 4.8 0.00 0.00 0.00 59 1032.7
20190820231140 16 265 0.0 3.2 0.00 0.00 0.00 59 1032.6
20190820231034 16 262 0.0 3.2 0.00 0.00 0.00 59 1032.6
20190820230932 16 262 0.0 3.2 0.00 0.00 0.00 59 1032.7
20190820230830 16 262 0.0 3.2 0.00 0.00 0.00 59 1032.7
20190820230724 16 256 0.0 1.6 0.00 0.00 0.00 59 1032.6
20190820230618 16 256 0.0 1.6 0.00 0.00 0.00 59 1032.7
20190820230513 16 256 0.0 1.6 0.00 0.00 0.00 59 1032.6
20190820230407 16 256 0.0 1.6 0.00 0.00 0.00 58 1032.5
20190820230303 16 256 0.0 1.6 0.00 0.00 0.00 58 1032.5
20190820230159 16 256 0.0 1.6 0.00 0.00 0.00 58 1032.4
20190820230053 16 256 0.0 1.6 0.00 0.00 0.00 58 1032.4
20190820225949 16 256 0.0 0.0 0.00 0.00 0.00 58 1032.5
20190820225845 16 256 0.0 0.0 0.00 0.00 0.00 58 1032.5
20190820225739 16 256 0.0 0.0 0.00 0.00 0.00 58 1032.4
20190820225632 16 256 0.0 1.6 0.00 0.00 0.00 58 1032.5
20190820225530 16 256 0.0 1.6 0.00 0.00 0.00 58 1032.4
20190820225424 16 256 0.0 1.6 0.00 0.00 0.00 58 1032.5
20190820225317 16 256 0.0 1.6 0.00 0.00 0.00 58 1032.5
20190820225216 16 256 0.0 1.6 0.00 0.00 0.00 58 1032.4
20190820225113 16 256 0.0 1.6 0.00 0.00 0.00 58 1032.4
20190820225010 16 256 0.0 3.2 0.00 0.00 0.00 58 1032.4
20190820224902 17 256 0.0 3.2 0.00 0.00 0.00 58 1032.4
20190820224754 16 256 0.0 3.2 0.00 0.00 0.00 58 1032.5
20190820224650 16 256 0.0 3.2 0.00 0.00 0.00 58 1032.4
20190820224542 16 256 0.0 3.2 0.00 0.00 0.00 58 1032.4
20190820224435 16 255 0.0 3.2 0.00 0.00 0.00 58 1032.4
20190820224331 16 255 0.0 3.2 0.00 0.00 0.00 58 1032.3
20190820224225 16 255 0.0 3.2 0.00 0.00 0.00 58 1032.3
20190820224121 16 255 0.0 3.2 0.00 0.00 0.00 58 1032.3
20190820224014 16 256 0.0 3.2 0.00 0.00 0.00 58 1032.4
20190820223909 16 257 0.0 3.2 0.00 0.00 0.00 58 1032.3
20190820223803 16 257 0.0 3.2 0.00 0.00 0.00 58 1032.4
20190820223659 17 257 0.0 3.2 0.00 0.00 0.00 58 1032.4
20190820223553 17 256 0.0 3.2 0.00 0.00 0.00 58 1032.4
20190820223448 17 257 0.0 3.2 0.00 0.00 0.00 57 1032.5
20190820223342 17 256 0.0 3.2 0.00 0.00 0.00 57 1032.4
20190820223239 17 256 0.0 3.2 0.00 0.00 0.00 57 1032.4
20190820223135 17 256 0.0 3.2 0.00 0.00 0.00 57 1032.4
20190820223029 17 256 0.0 3.2 0.00 0.00 0.00 57 1032.4
20190820222924 17 323 0.0 1.6 0.00 0.00 0.00 57 1032.5
20190820222819 17 333 0.0 1.6 0.00 0.00 0.00 57 1032.5
20190820222711 17 346 0.0 1.6 0.00 0.00 0.00 56 1032.5
20190820222605 17 346 0.0 1.6 0.00 0.00 0.00 56 1032.4
20190820222458 17 346 0.0 1.6 0.00 0.00 0.00 56 1032.4
20190820222352 17 346 0.0 1.6 0.00 0.00 0.00 56 1032.4
20190820222247 17 346 0.0 1.6 0.00 0.00 0.00 56 1032.4
20190820222144 17 346 0.0 1.6 0.00 0.00 0.00 56 1032.4
20190820222038 17 346 0.0 1.6 0.00 0.00 0.00 55 1032.3
20190820221931 17 346 0.0 1.6 0.00 0.00 0.00 55 1032.4
20190820221825 17 346 0.0 1.6 0.00 0.00 0.00 55 1032.3
20190820221717 17 346 0.0 1.6 0.00 0.00 0.00 55 1032.4
20190820221614 17 5 0.0 1.6 0.00 0.00 0.00 55 1032.4
20190820221509 17 5 0.0 1.6 0.00 0.00 0.00 55 1032.4
20190820221405 17 5 0.0 1.6 0.00 0.00 0.00 55 1032.3
20190820221301 17 5 0.0 0.0 0.00 0.00 0.00 54 1032.3
20190820221157 17 5 0.0 0.0 0.00 0.00 0.00 54 1032.3
20190820221049 17 5 0.0 0.0 0.00 0.00 0.00 54 1032.3
20190820220942 17 5 0.0 0.0 0.00 0.00 0.00 54 1032.3
20190820220835 17 5 0.0 0.0 0.00 0.00 0.00 54 1032.3
20190820220733 17 5 0.0 0.0 0.00 0.00 0.00 54 1032.1
20190820220626 17 5 0.0 0.0 0.00 0.00 0.00 54 1032.2
20190820220520 17 5 0.0 0.0 0.00 0.00 0.00 54 1032.2
20190820220417 17 5 0.0 0.0 0.00 0.00 0.00 54 1032.2
20190820220310 17 5 0.0 0.0 0.00 0.00 0.00 54 1032.2
20190820220208 17 5 0.0 0.0 0.00 0.00 0.00 54 1032.1
20190820220102 17 5 0.0 0.0 0.00 0.00 0.00 53 1032.1
20190820215956 17 5 0.0 0.0 0.00 0.00 0.00 53 1032.2
20190820215853 17 5 0.0 1.6 0.00 0.00 0.00 53 1032.1
20190820215748 17 5 0.0 1.6 0.00 0.00 0.00 53 1032.0
20190820215646 17 5 0.0 1.6 0.00 0.00 0.00 54 1032.0
20190820215539 17 5 0.0 0.0 0.00 0.00 0.00 54 1032.0
20190820215434 17 5 0.0 0.0 0.00 0.00 0.00 54 1032.0
20190820215328 17 5 0.0 0.0 0.00 0.00 0.00 54 1032.1
20190820215221 17 5 0.0 0.0 0.00 0.00 0.00 54 1032.0
20190820215119 17 5 0.0 0.0 0.00 0.00 0.00 54 1032.0
20190820215016 17 5 0.0 0.0 0.00 0.00 0.00 54 1031.9
20190820214913 17 5 0.0 0.0 0.00 0.00 0.00 54 1031.9
20190820214807 17 5 0.0 1.6 0.00 0.00 0.00 54 1032.0
20190820214702 17 5 0.0 1.6 0.00 0.00 0.00 54 1032.0
20190820214557 17 5 0.0 0.0 0.00 0.00 0.00 54 1032.0
20190820214452 17 5 0.0 0.0 0.00 0.00 0.00 54 1031.9
20190820214348 17 5 0.0 0.0 0.00 0.00 0.00 54 1031.9
20190820214241 17 5 0.0 0.0 0.00 0.00 0.00 54 1031.9
20190820214135 17 5 0.0 0.0 0.00 0.00 0.00 54 1031.9
20190820214031 17 5 0.0 0.0 0.00 0.00 0.00 54 1031.9
20190820213929 17 5 0.0 0.0 0.00 0.00 0.00 54 1031.9
20190820213821 17 5 0.0 0.0 0.00 0.00 0.00 54 1031.9
20190820213719 17 5 0.0 0.0 0.00 0.00 0.00 54 1032.0
20190820213613 17 5 0.0 4.8 0.00 0.00 0.00 54 1031.9
20190820213505 17 5 0.0 4.8 0.00 0.00 0.00 54 1031.9
20190820213400 17 5 0.0 4.8 0.00 0.00 0.00 53 1032.0
20190820213254 17 5 0.0 4.8 0.00 0.00 0.00 53 1031.9
20190820213148 17 5 1.6 4.8 0.00 0.00 0.00 53 1031.9
20190820213041 17 5 1.6 4.8 0.00 0.00 0.00 53 1032.0
20190820212935 17 5 1.6 4.8 0.00 0.00 0.00 53 1032.0
20190820212828 17 5 0.0 4.8 0.00 0.00 0.00 54 1032.0
20190820212721 17 34 0.0 4.8 0.00 0.00 0.00 54 1031.9
20190820212618 17 5 0.0 4.8 0.00 0.00 0.00 54 1031.9
20190820212511 17 342 0.0 3.2 0.00 0.00 0.00 54 1031.9
20190820212407 17 348 0.0 3.2 0.00 0.00 0.00 54 1032.0
20190820212302 17 37 0.0 3.2 0.00 0.00 0.00 55 1031.9
20190820212158 17 37 0.0 3.2 0.00 0.00 0.00 55 1031.9
20190820212053 17 38 0.0 3.2 0.00 0.00 0.00 55 1031.9
20190820211946 17 38 0.0 6.4 0.00 0.00 0.00 55 1031.9
20190820211842 17 38 0.0 6.4 0.00 0.00 0.00 55 1031.9
20190820211735 17 38 0.0 6.4 0.00 0.00 0.00 55 1031.8
20190820211634 17 38 0.0 6.4 0.00 0.00 0.00 55 1031.8
20190820211528 17 38 1.6 6.4 0.00 0.00 0.00 55 1031.8
20190820211422 17 38 1.6 6.4 0.00 0.00 0.00 55 1031.8
20190820211316 17 38 1.6 6.4 0.00 0.00 0.00 55 1031.9
20190820211208 17 38 1.6 6.4 0.00 0.00 0.00 55 1031.7
20190820211105 17 38 1.6 6.4 0.00 0.00 0.00 55 1031.7
20190820210959 17 38 1.6 6.4 0.00 0.00 0.00 55 1031.7
20190820210856 17 38 1.6 6.4 0.00 0.00 0.00 54 1031.7
20190820210752 17 38 1.6 6.4 0.00 0.00 0.00 55 1031.7
20190820210650 17 31 1.6 6.4 0.00 0.00 0.00 54 1031.6
20190820210544 17 44 1.6 6.4 0.00 0.00 0.00 55 1031.7
20190820210443 17 24 1.6 6.4 0.00 0.00 0.00 55 1031.6
20190820210339 17 20 1.6 6.4 0.00 0.00 0.00 55 1031.6
20190820210233 17 22 1.6 6.4 0.00 0.00 0.00 55 1031.6
20190820210128 17 22 0.0 6.4 0.00 0.00 0.00 55 1031.6
20190820210023 17 43 0.0 6.4 0.00 0.00 0.00 55 1031.6
20190820205918 17 55 0.0 4.8 0.00 0.00 0.00 55 1031.6
20190820205812 17 55 0.0 4.8 0.00 0.00 0.00 55 1031.6
20190820205709 17 55 0.0 4.8 0.00 0.00 0.00 55 1031.7
20190820205605 17 74 0.0 6.4 0.00 0.00 0.00 55 1031.6
20190820205500 17 74 0.0 6.4 0.00 0.00 0.00 55 1031.6
20190820205358 17 80 1.6 6.4 0.00 0.00 0.00 55 1031.7
20190820205253 17 71 1.6 6.4 0.00 0.00 0.00 55 1031.6
20190820205146 17 58 1.6 6.4 0.00 0.00 0.00 55 1031.5
20190820205041 17 71 1.6 6.4 0.00 0.00 0.00 55 1031.6
20190820204934 17 55 1.6 6.4 0.00 0.00 0.00 55 1031.6
20190820204826 17 26 1.6 6.4 0.00 0.00 0.00 55 1031.6
20190820204721 17 26 1.6 6.4 0.00 0.00 0.00 55 1031.6
20190820204617 17 26 1.6 6.4 0.00 0.00 0.00 55 1031.6
20190820204515 17 26 1.6 6.4 0.00 0.00 0.00 55 1031.6
20190820204408 17 39 1.6 6.4 0.00 0.00 0.00 55 1031.5
20190820204302 17 15 1.6 6.4 0.00 0.00 0.00 55 1031.6
20190820204200 17 5 1.6 6.4 0.00 0.00 0.00 55 1031.6
20190820204055 17 5 1.6 6.4 0.00 0.00 0.00 55 1031.6
20190820203951 17 63 1.6 6.4 0.00 0.00 0.00 55 1031.6
20190820203843 17 63 1.6 6.4 0.00 0.00 0.00 55 1031.6
20190820203738 17 26 1.6 6.4 0.00 0.00 0.00 55 1031.6
20190820203636 17 30 1.6 4.8 0.00 0.00 0.00 55 1031.6
20190820203533 17 36 0.0 4.8 0.00 0.00 0.00 55 1031.5
20190820203431 17 36 0.0 4.8 0.00 0.00 0.00 55 1031.5
20190820203328 17 355 0.0 4.8 0.00 0.00 0.00 55 1031.5
20190820203220 17 44 0.0 8.0 0.00 0.00 0.00 55 1031.5
20190820203116 17 44 0.0 8.0 0.00 0.00 0.00 55 1031.5
20190820203012 17 44 0.0 8.0 0.00 0.00 0.00 54 1031.5
20190820202908 17 44 0.0 8.0 0.00 0.00 0.00 55 1031.5
20190820202804 17 33 0.0 8.0 0.00 0.00 0.00 55 1031.5
20190820202656 17 40 0.0 8.0 0.00 0.00 0.00 55 1031.5
20190820202554 18 30 0.0 8.0 0.00 0.00 0.00 55 1031.4
20190820202451 17 30 0.0 8.0 0.00 0.00 0.00 55 1031.4
20190820202345 18 30 1.6 8.0 0.00 0.00 0.00 55 1031.5
20190820202238 18 30 1.6 8.0 0.00 0.00 0.00 55 1031.5
20190820202131 18 45 1.6 8.0 0.00 0.00 0.00 55 1031.5
20190820202024 18 46 1.6 8.0 0.00 0.00 0.00 55 1031.4
20190820201922 18 46 1.6 8.0 0.00 0.00 0.00 55 1031.4
20190820201817 18 47 1.6 8.0 0.00 0.00 0.00 55 1031.4
20190820201712 18 47 1.6 8.0 0.00 0.00 0.00 54 1031.4
20190820201605 18 70 1.6 8.0 0.00 0.00 0.00 55 1031.3
20190820201500 18 67 1.6 8.0 0.00 0.00 0.00 54 1031.4
20190820201354 18 33 1.6 8.0 0.00 0.00 0.00 54 1031.4
20190820201248 18 355 0.0 8.0 0.00 0.00 0.00 54 1031.4
20190820201144 18 53 0.0 4.8 0.00 0.00 0.00 54 1031.4
20190820201042 18 45 1.6 6.4 0.00 0.00 0.00 54 1031.4
20190820200937 18 45 1.6 6.4 0.00 0.00 0.00 54 1031.4
20190820200832 18 45 1.6 6.4 0.00 0.00 0.00 54 1031.3
20190820200728 18 46 1.6 6.4 0.00 0.00 0.00 54 1031.3
20190820200623 18 29 1.6 6.4 0.00 0.00 0.00 54 1031.4
20190820200516 18 347 1.6 6.4 0.00 0.00 0.00 54 1031.3
20190820200413 18 42 1.6 6.4 0.00 0.00 0.00 54 1031.3
20190820200306 18 32 1.6 6.4 0.00 0.00 0.00 54 1031.4
20190820200202 18 28 1.6 6.4 0.00 0.00 0.00 54 1031.3
20190820200056 18 5 1.6 6.4 0.00 0.00 0.00 54 1031.3
20190820195953 18 24 1.6 8.0 0.00 0.00 0.00 53 1031.3
20190820195846 18 9 3.2 8.0 0.00 0.00 0.00 53 1031.3
20190820195742 18 75 3.2 8.0 0.00 0.00 0.00 53 1031.3
20190820195640 18 329 3.2 8.0 0.00 0.00 0.00 53 1031.2
20190820195539 18 9 3.2 8.0 0.00 0.00 0.00 53 1031.2
20190820195433 18 350 3.2 8.0 0.00 0.00 0.00 52 1031.2
20190820195328 18 34 3.2 8.0 0.00 0.00 0.00 52 1031.2
20190820195225 18 338 3.2 8.0 0.00 0.00 0.00 52 1031.2
20190820195118 18 323 3.2 8.0 0.00 0.00 0.00 52 1031.2
20190820195014 18 337 3.2 8.0 0.00 0.00 0.00 51 1031.2
20190820194908 18 338 3.2 8.0 0.00 0.00 0.00 51 1031.3
20190820194800 18 17 3.2 8.0 0.00 0.00 0.00 51 1031.2
20190820194654 18 0 3.2 8.0 0.00 0.00 0.00 51 1031.1
20190820194550 18 321 1.6 8.0 0.00 0.00 0.00 50 1031.2
20190820194443 18 27 3.2 8.0 0.00 0.00 0.00 50 1031.2
20190820194336 18 28 1.6 8.0 0.00 0.00 0.00 50 1031.1
20190820194228 18 9 1.6 8.0 0.00 0.00 0.00 50 1031.1
20190820194127 18 35 1.6 8.0 0.00 0.00 0.00 50 1031.1
20190820194022 18 24 1.6 12.9 0.00 0.00 0.00 50 1031.1
20190820193917 18 313 1.6 12.9 0.00 0.00 0.00 50 1031.1
20190820193811 18 346 1.6 12.9 0.00 0.00 0.00 49 1031.1
20190820193706 18 316 1.6 12.9 0.00 0.00 0.00 49 1031.2
20190820193600 18 316 1.6 12.9 0.00 0.00 0.00 49 1031.2
20190820193456 18 316 3.2 12.9 0.00 0.00 0.00 50 1031.1
20190820193350 18 339 3.2 12.9 0.00 0.00 0.00 49 1031.1
20190820193243 18 5 3.2 12.9 0.00 0.00 0.00 49 1031.0
20190820193137 18 355 3.2 12.9 0.00 0.00 0.00 49 1031.1
20190820193030 18 355 4.8 14.5 0.00 0.00 0.00 49 1031.0
20190820192923 18 317 4.8 14.5 0.00 0.00 0.00 49 1031.1
20190820192819 18 327 4.8 14.5 0.00 0.00 0.00 49 1031.0
20190820192715 18 327 4.8 14.5 0.00 0.00 0.00 49 1031.0
20190820192609 18 309 4.8 14.5 0.00 0.00 0.00 49 1031.0
20190820192504 18 318 4.8 14.5 0.00 0.00 0.00 49 1031.0
20190820192357 18 318 4.8 14.5 0.00 0.00 0.00 48 1031.0
20190820192254 18 327 4.8 14.5 0.00 0.00 0.00 49 1030.9
20190820192148 18 304 4.8 14.5 0.00 0.00 0.00 48 1031.0
20190820192041 18 286 4.8 16.1 0.00 0.00 0.00 48 1031.1
20190820191935 18 42 4.8 16.1 0.00 0.00 0.00 48 1031.0
20190820191829 19 286 4.8 16.1 0.00 0.00 0.00 48 1031.0
20190820191727 19 313 4.8 16.1 0.00 0.00 0.00 48 1031.0
20190820191623 19 313 4.8 16.1 0.00 0.00 0.00 48 1031.0
20190820191516 19 16 4.8 16.1 0.00 0.00 0.00 48 1031.0
20190820191412 19 27 6.4 16.1 0.00 0.00 0.00 48 1030.9
20190820191305 19 306 6.4 16.1 0.00 0.00 0.00 48 1030.9
20190820191159 19 313 6.4 16.1 0.00 0.00 0.00 48 1031.1
20190820191053 19 317 8.0 16.1 0.00 0.00 0.00 48 1030.9
20190820190948 19 322 8.0 17.7 0.00 0.00 0.00 48 1030.9
20190820190841 19 0 8.0 17.7 0.00 0.00 0.00 48 1030.9
20190820190734 19 298 8.0 17.7 0.00 0.00 0.00 48 1030.9
20190820190627 19 309 8.0 17.7 0.00 0.00 0.00 48 1031.0
20190820190525 19 307 8.0 17.7 0.00 0.00 0.00 48 1031.0
20190820190418 19 327 8.0 17.7 0.00 0.00 0.00 47 1030.9
20190820190313 19 300 6.4 17.7 0.00 0.00 0.00 47 1030.8
20190820190211 19 303 6.4 17.7 0.00 0.00 0.00 47 1030.8
20190820190104 20 321 8.0 17.7 0.00 0.00 0.00 46 1030.7
20190820185959 20 345 8.0 17.7 0.00 0.00 0.00 46 1030.7
20190820185856 20 327 8.0 17.7 0.00 0.00 0.00 46 1030.7
20190820185751 20 321 6.4 17.7 0.00 0.00 0.00 46 1030.6
20190820185648 20 329 6.4 17.7 0.00 0.00 0.00 45 1030.7
20190820185544 20 346 6.4 17.7 0.00 0.00 0.00 44 1030.7
20190820185437 20 320 6.4 17.7 0.00 0.00 0.00 44 1030.5
20190820185335 20 315 6.4 17.7 0.00 0.00 0.00 43 1030.5
20190820185232 20 317 6.4 17.7 0.00 0.00 0.00 43 1030.4
20190820185130 20 312 6.4 17.7 0.00 0.00 0.00 42 1030.4
20190820185026 20 305 4.8 12.9 0.00 0.00 0.00 41 1030.4
20190820184919 20 315 4.8 12.9 0.00 0.00 0.00 40 1030.3
20190820184813 20 269 4.8 12.9 0.00 0.00 0.00 40 1030.3
20190820184705 20 282 4.8 12.9 0.00 0.00 0.00 40 1030.2
20190820184601 20 293 4.8 12.9 0.00 0.00 0.00 40 1030.2
20190820184456 20 280 6.4 16.1 0.00 0.00 0.00 40 1030.2
20190820184351 20 275 6.4 16.1 0.00 0.00 0.00 40 1030.2
20190820184247 20 297 6.4 16.1 0.00 0.00 0.00 40 1030.1
20190820184144 20 287 6.4 16.1 0.00 0.00 0.00 40 1030.2
20190820184038 20 273 6.4 16.1 0.00 0.00 0.00 40 1030.2
20190820183936 20 309 6.4 16.1 0.00 0.00 0.00 39 1030.2
20190820183832 20 262 6.4 16.1 0.00 0.00 0.00 39 1030.2
20190820183728 20 315 6.4 16.1 0.00 0.00 0.00 39 1030.2
20190820183623 20 275 6.4 16.1 0.00 0.00 0.00 39 1030.1
20190820183519 20 254 8.0 16.1 0.00 0.00 0.00 39 1030.1
20190820183413 20 281 6.4 19.3 0.00 0.00 0.00 39 1030.1
20190820183305 20 283 6.4 19.3 0.00 0.00 0.00 39 1030.1
20190820183158 20 288 6.4 19.3 0.00 0.00 0.00 39 1030.1
20190820183055 21 287 6.4 19.3 0.00 0.00 0.00 39 1030.1
20190820182947 21 309 6.4 19.3 0.00 0.00 0.00 39 1030.0
20190820182839 21 265 6.4 19.3 0.00 0.00 0.00 38 1030.1
20190820182732 21 270 6.4 19.3 0.00 0.00 0.00 38 1030.1
20190820182626 21 232 8.0 19.3 0.00 0.00 0.00 38 1030.2
20190820182522 21 239 8.0 19.3 0.00 0.00 0.00 38 1030.0
20190820182420 21 277 8.0 19.3 0.00 0.00 0.00 38 1030.1
20190820182317 21 274 8.0 19.3 0.00 0.00 0.00 38 1030.1
20190820182212 21 256 8.0 19.3 0.00 0.00 0.00 38 1030.1
20190820182108 21 310 8.0 19.3 0.00 0.00 0.00 38 1030.0
20190820182006 21 266 8.0 19.3 0.00 0.00 0.00 38 1030.0
20190820181901 21 294 8.0 19.3 0.00 0.00 0.00 38 1030.2
20190820181758 21 281 8.0 19.3 0.00 0.00 0.00 38 1030.1
20190820181655 21 286 8.0 19.3 0.00 0.00 0.00 37 1030.0
20190820181553 21 304 6.4 19.3 0.00 0.00 0.00 37 1030.1
20190820181450 21 301 6.4 14.5 0.00 0.00 0.00 37 1030.0
20190820181344 21 279 6.4 14.5 0.00 0.00 0.00 37 1030.0
20190820181242 21 248 6.4 14.5 0.00 0.00 0.00 37 1029.9
20190820181140 21 286 4.8 14.5 0.00 0.00 0.00 37 1029.8
20190820181036 21 344 4.8 14.5 0.00 0.00 0.00 37 1030.0
20190820180930 21 291 4.8 14.5 0.00 0.00 0.00 37 1029.8
20190820180823 21 275 4.8 14.5 0.00 0.00 0.00 37 1029.9
20190820180717 21 283 4.8 14.5 0.00 0.00 0.00 37 1029.9
20190820180614 21 286 4.8 14.5 0.00 0.00 0.00 37 1029.9
20190820180508 21 259 4.8 12.9 0.00 0.00 0.00 37 1029.9
20190820180403 21 278 4.8 12.9 0.00 0.00 0.00 37 1029.8
20190820180255 21 261 4.8 16.1 0.00 0.00 0.00 37 1029.8
20190820180152 21 269 4.8 16.1 0.00 0.00 0.00 37 1029.9
20190820180047 21 291 4.8 16.1 0.00 0.00 0.00 37 1029.9
20190820175942 21 246 4.8 16.1 0.00 0.00 0.00 37 1029.7
20190820175837 21 304 4.8 16.1 0.00 0.00 0.00 37 1029.8
20190820175734 21 287 4.8 16.1 0.00 0.00 0.00 37 1029.7
20190820175628 21 273 4.8 16.1 0.00 0.00 0.00 37 1029.6
20190820175520 21 255 4.8 16.1 0.00 0.00 0.00 36 1029.7
20190820175417 21 264 6.4 16.1 0.00 0.00 0.00 36 1029.6
20190820175312 21 298 6.4 16.1 0.00 0.00 0.00 36 1029.7
20190820175207 21 299 6.4 16.1 0.00 0.00 0.00 36 1029.7
20190820175100 21 266 6.4 16.1 0.00 0.00 0.00 36 1029.6
20190820174954 21 294 6.4 16.1 0.00 0.00 0.00 36 1029.5
20190820174852 21 319 6.4 16.1 0.00 0.00 0.00 36 1029.4
20190820174748 21 286 6.4 16.1 0.00 0.00 0.00 36 1029.5
20190820174643 21 294 6.4 16.1 0.00 0.00 0.00 36 1029.6
20190820174539 21 316 6.4 16.1 0.00 0.00 0.00 36 1029.4
20190820174437 21 281 6.4 16.1 0.00 0.00 0.00 35 1029.4
20190820174335 21 284 6.4 16.1 0.00 0.00 0.00 35 1029.4
20190820174231 21 281 6.4 17.7 0.00 0.00 0.00 35 1029.4
20190820174128 21 301 6.4 17.7 0.00 0.00 0.00 35 1029.3
20190820174022 21 220 6.4 17.7 0.00 0.00 0.00 36 1029.3
20190820173919 21 238 8.0 17.7 0.00 0.00 0.00 36 1029.3
20190820173814 21 293 8.0 17.7 0.00 0.00 0.00 35 1029.4
20190820173710 21 280 8.0 17.7 0.00 0.00 0.00 35 1029.4
20190820173603 21 292 8.0 17.7 0.00 0.00 0.00 35 1029.3
20190820173501 21 304 8.0 17.7 0.00 0.00 0.00 35 1029.4
20190820173358 21 292 8.0 17.7 0.00 0.00 0.00 35 1029.3
20190820173254 21 281 8.0 17.7 0.00 0.00 0.00 35 1029.4
20190820173151 21 279 8.0 17.7 0.00 0.00 0.00 35 1029.4
20190820173047 21 289 8.0 17.7 0.00 0.00 0.00 35 1029.2
20190820172939 21 261 8.0 17.7 0.00 0.00 0.00 35 1029.4
20190820172837 21 313 8.0 17.7 0.00 0.00 0.00 35 1029.3
20190820172732 21 263 8.0 17.7 0.00 0.00 0.00 35 1029.3
20190820172626 21 281 8.0 17.7 0.00 0.00 0.00 35 1029.3
20190820172524 21 257 8.0 17.7 0.00 0.00 0.00 35 1029.3
20190820172417 21 282 8.0 17.7 0.00 0.00 0.00 35 1029.4
20190820172310 21 303 8.0 17.7 0.00 0.00 0.00 35 1029.4
20190820172207 21 278 8.0 17.7 0.00 0.00 0.00 35 1029.4
20190820172102 21 294 8.0 17.7 0.00 0.00 0.00 35 1029.3
20190820171956 21 265 6.4 17.7 0.00 0.00 0.00 35 1029.4
20190820171853 21 286 6.4 17.7 0.00 0.00 0.00 34 1029.3
20190820171750 21 271 6.4 17.7 0.00 0.00 0.00 34 1029.4
20190820171647 21 262 6.4 17.7 0.00 0.00 0.00 34 1029.4
20190820171543 21 211 6.4 17.7 0.00 0.00 0.00 34 1029.5
20190820171437 21 215 6.4 17.7 0.00 0.00 0.00 34 1029.5
20190820171333 21 305 6.4 17.7 0.00 0.00 0.00 34 1029.5
20190820171231 21 229 4.8 14.5 0.00 0.00 0.00 34 1029.5
20190820171128 21 251 6.4 14.5 0.00 0.00 0.00 34 1029.4
20190820171026 21 146 6.4 16.1 0.00 0.00 0.00 34 1029.4
20190820170920 22 209 6.4 16.1 0.00 0.00 0.00 34 1029.3
20190820170814 22 251 6.4 16.1 0.00 0.00 0.00 34 1029.4
20190820170707 22 251 4.8 16.1 0.00 0.00 0.00 34 1029.4
20190820170605 22 271 4.8 16.1 0.00 0.00 0.00 34 1029.3
20190820170459 22 299 4.8 16.1 0.00 0.00 0.00 34 1029.4
20190820170352 22 190 4.8 16.1 0.00 0.00 0.00 34 1029.3
20190820170250 22 173 4.8 16.1 0.00 0.00 0.00 34 1029.3
20190820170147 22 239 4.8 16.1 0.00 0.00 0.00 33 1029.3
20190820170040 22 244 4.8 16.1 0.00 0.00 0.00 34 1029.1
20190820165938 22 266 4.8 16.1 0.00 0.00 0.00 34 1029.3
20190820165837 22 194 4.8 16.1 0.00 0.00 0.00 33 1029.2
20190820165733 22 254 6.4 16.1 0.00 0.00 0.00 33 1029.2
20190820165626 22 194 6.4 16.1 0.00 0.00 0.00 33 1029.2
20190820165520 22 239 6.4 16.1 0.00 0.00 0.00 33 1029.3
20190820165415 22 287 6.4 16.1 0.00 0.00 0.00 33 1029.2
20190820165312 22 167 6.4 16.1 0.00 0.00 0.00 33 1029.2
20190820165210 22 178 6.4 16.1 0.00 0.00 0.00 32 1029.3
20190820165103 22 260 4.8 16.1 0.00 0.00 0.00 32 1029.2
20190820165001 22 207 6.4 16.1 0.00 0.00 0.00 33 1029.2
20190820164855 22 236 6.4 16.1 0.00 0.00 0.00 33 1029.1
20190820164748 22 265 4.8 16.1 0.00 0.00 0.00 33 1029.2
20190820164643 22 292 6.4 16.1 0.00 0.00 0.00 33 1029.1
20190820164536 22 284 6.4 16.1 0.00 0.00 0.00 33 1029.1
20190820164433 22 242 6.4 16.1 0.00 0.00 0.00 33 1029.1
20190820164328 22 222 6.4 16.1 0.00 0.00 0.00 33 1029.1
20190820164225 21 265 6.4 16.1 0.00 0.00 0.00 33 1029.2
20190820164122 21 252 8.0 16.1 0.00 0.00 0.00 33 1029.1
20190820164016 21 302 6.4 16.1 0.00 0.00 0.00 33 1029.1
20190820163909 21 296 6.4 16.1 0.00 0.00 0.00 33 1029.1
20190820163803 21 279 4.8 16.1 0.00 0.00 0.00 33 1029.2
20190820163700 21 273 4.8 16.1 0.00 0.00 0.00 33 1029.2
20190820163557 21 297 3.2 16.1 0.00 0.00 0.00 33 1029.2
20190820163454 21 272 3.2 16.1 0.00 0.00 0.00 34 1029.1
20190820163351 21 310 3.2 16.1 0.00 0.00 0.00 34 1029.2
20190820163245 21 276 3.2 14.5 0.00 0.00 0.00 34 1029.2
20190820163142 21 302 1.6 14.5 0.00 0.00 0.00 35 1029.2
20190820163038 21 269 3.2 14.5 0.00 0.00 0.00 35 1029.2
20190820162934 21 284 3.2 14.5 0.00 0.00 0.00 35 1029.2
20190820162829 21 239 4.8 14.5 0.00 0.00 0.00 35 1029.3
20190820162721 21 240 6.4 17.7 0.00 0.00 0.00 35 1029.3
20190820162618 21 277 6.4 17.7 0.00 0.00 0.00 35 1029.3
20190820162514 21 249 8.0 17.7 0.00 0.00 0.00 35 1029.3
20190820162410 21 272 8.0 17.7 0.00 0.00 0.00 35 1029.3
20190820162306 21 277 9.7 17.7 0.00 0.00 0.00 35 1029.3
20190820162204 21 265 9.7 17.7 0.00 0.00 0.00 35 1029.2
20190820162056 21 289 8.0 17.7 0.00 0.00 0.00 35 1029.3
20190820161949 21 273 8.0 17.7 0.00 0.00 0.00 35 1029.2
20190820161843 21 238 8.0 17.7 0.00 0.00 0.00 35 1029.1
20190820161735 21 263 8.0 17.7 0.00 0.00 0.00 34 1029.1
20190820161627 21 284 8.0 17.7 0.00 0.00 0.00 34 1029.2
20190820161521 21 302 8.0 17.7 0.00 0.00 0.00 34 1029.2
20190820161416 21 256 8.0 17.7 0.00 0.00 0.00 34 1029.1
20190820161313 21 273 8.0 17.7 0.00 0.00 0.00 34 1029.1
20190820161206 21 270 8.0 17.7 0.00 0.00 0.00 34 1029.1
20190820161104 21 301 8.0 17.7 0.00 0.00 0.00 34 1029.0
20190820161002 21 292 6.4 17.7 0.00 0.00 0.00 34 1029.1
20190820160857 21 224 6.4 17.7 0.00 0.00 0.00 34 1029.1
20190820160753 21 256 6.4 17.7 0.00 0.00 0.00 33 1029.1
20190820160650 21 257 6.4 16.1 0.00 0.00 0.00 33 1029.1
20190820160544 21 283 6.4 16.1 0.00 0.00 0.00 33 1029.2
20190820160441 21 255 6.4 16.1 0.00 0.00 0.00 33 1029.1
20190820160335 21 307 4.8 16.1 0.00 0.00 0.00 34 1029.2
20190820160232 21 302 4.8 14.5 0.00 0.00 0.00 34 1029.1
20190820160125 21 291 4.8 14.5 0.00 0.00 0.00 34 1029.0
20190820160019 21 294 4.8 14.5 0.00 0.00 0.00 34 1029.1
20190820155911 21 298 4.8 14.5 0.00 0.00 0.00 35 1029.1
20190820155804 21 343 4.8 14.5 0.00 0.00 0.00 34 1029.0
20190820155701 21 209 4.8 14.5 0.00 0.00 0.00 35 1029.1
20190820155555 21 169 4.8 14.5 0.00 0.00 0.00 35 1029.0
20190820155452 21 270 4.8 12.9 0.00 0.00 0.00 35 1029.1
20190820155347 21 171 4.8 12.9 0.00 0.00 0.00 36 1029.0
20190820155242 21 259 4.8 12.9 0.00 0.00 0.00 36 1029.0
20190820155134 21 263 4.8 14.5 0.00 0.00 0.00 36 1029.0
20190820155031 21 304 4.8 14.5 0.00 0.00 0.00 35 1029.1
20190820154928 21 300 4.8 14.5 0.00 0.00 0.00 36 1029.0
20190820154823 21 297 4.8 14.5 0.00 0.00 0.00 35 1029.0
20190820154719 21 277 4.8 14.5 0.00 0.00 0.00 36 1029.0
20190820154613 21 269 3.2 14.5 0.00 0.00 0.00 35 1029.1
20190820154508 21 277 3.2 14.5 0.00 0.00 0.00 35 1029.1
20190820154401 21 236 3.2 14.5 0.00 0.00 0.00 35 1029.1
20190820154257 21 283 3.2 14.5 0.00 0.00 0.00 35 1029.3
20190820154151 21 259 3.2 14.5 0.00 0.00 0.00 35 1029.1
20190820154049 21 250 3.2 14.5 0.00 0.00 0.00 35 1029.1
20190820153943 21 177 3.2 14.5 0.00 0.00 0.00 35 1029.2
20190820153841 21 243 3.2 14.5 0.00 0.00 0.00 35 1029.2
20190820153734 21 202 3.2 14.5 0.00 0.00 0.00 35 1029.2
20190820153629 21 276 3.2 14.5 0.00 0.00 0.00 35 1029.1
20190820153524 21 157 3.2 14.5 0.00 0.00 0.00 35 1029.1
20190820153417 21 335 4.8 14.5 0.00 0.00 0.00 35 1029.1
20190820153312 21 210 4.8 14.5 0.00 0.00 0.00 35 1029.1
20190820153209 21 200 4.8 14.5 0.00 0.00 0.00 35 1029.1
20190820153105 21 292 4.8 12.9 0.00 0.00 0.00 35 1029.2
20190820153002 21 296 4.8 12.9 0.00 0.00 0.00 35 1029.0
20190820152857 21 182 4.8 12.9 0.00 0.00 0.00 35 1029.0
20190820152750 21 210 6.4 12.9 0.00 0.00 0.00 34 1029.1
20190820152645 21 286 6.4 12.9 0.00 0.00 0.00 35 1029.1
20190820152542 21 134 4.8 12.9 0.00 0.00 0.00 35 1029.1
20190820152435 21 184 4.8 12.9 0.00 0.00 0.00 35 1029.1
20190820152332 21 263 4.8 17.7 0.00 0.00 0.00 35 1029.1
20190820152227 21 279 4.8 17.7 0.00 0.00 0.00 35 1029.1
20190820152123 21 267 6.4 17.7 0.00 0.00 0.00 35 1029.0
20190820152019 21 267 6.4 17.7 0.00 0.00 0.00 35 1029.1
20190820151914 21 246 6.4 17.7 0.00 0.00 0.00 35 1029.1
20190820151809 21 268 4.8 17.7 0.00 0.00 0.00 35 1029.1
20190820151702 21 230 4.8 17.7 0.00 0.00 0.00 35 1029.0
20190820151558 21 289 4.8 17.7 0.00 0.00 0.00 34 1029.0
20190820151455 21 160 4.8 17.7 0.00 0.00 0.00 34 1029.1
20190820151348 21 233 3.2 19.3 0.00 0.00 0.00 34 1029.1
20190820151244 22 309 3.2 19.3 0.00 0.00 0.00 34 1029.0
20190820151139 22 303 3.2 19.3 0.00 0.00 0.00 34 1029.1
20190820151032 22 232 3.2 19.3 0.00 0.00 0.00 34 1029.2
20190820150925 22 191 3.2 19.3 0.00 0.00 0.00 34 1029.1
20190820150820 22 193 4.8 19.3 0.00 0.00 0.00 34 1029.2
20190820150714 21 204 4.8 19.3 0.00 0.00 0.00 35 1029.0
20190820150608 22 296 6.4 19.3 0.00 0.00 0.00 34 1029.2
20190820150502 21 227 6.4 19.3 0.00 0.00 0.00 34 1029.1
20190820150356 21 294 8.0 19.3 0.00 0.00 0.00 34 1029.1
20190820150252 21 303 8.0 19.3 0.00 0.00 0.00 35 1029.1
20190820150146 21 182 8.0 19.3 0.00 0.00 0.00 34 1029.2
20190820150042 21 182 9.7 19.3 0.00 0.00 0.00 34 1029.2
20190820145939 21 219 8.0 19.3 0.00 0.00 0.00 34 1029.2
20190820145834 21 322 8.0 19.3 0.00 0.00 0.00 34 1029.2
20190820145730 21 196 8.0 19.3 0.00 0.00 0.00 34 1029.2
20190820145626 21 212 8.0 19.3 0.00 0.00 0.00 34 1029.2
20190820145522 21 271 6.4 19.3 0.00 0.00 0.00 34 1029.0
20190820145420 21 309 6.4 19.3 0.00 0.00 0.00 34 1029.1
20190820145313 21 254 4.8 16.1 0.00 0.00 0.00 34 1029.1
20190820145210 21 240 4.8 16.1 0.00 0.00 0.00 34 1029.2
20190820145104 22 290 4.8 16.1 0.00 0.00 0.00 34 1029.1
20190820144957 22 294 4.8 16.1 0.00 0.00 0.00 35 1029.1
20190820144853 21 242 4.8 16.1 0.00 0.00 0.00 35 1029.2
20190820144749 21 316 4.8 16.1 0.00 0.00 0.00 35 1029.1
20190820144643 21 267 4.8 16.1 0.00 0.00 0.00 35 1029.1
20190820144540 21 242 6.4 16.1 0.00 0.00 0.00 35 1029.1
20190820144436 21 258 6.4 16.1 0.00 0.00 0.00 35 1029.1
20190820144329 21 250 6.4 16.1 0.00 0.00 0.00 35 1029.0
20190820144224 21 244 6.4 16.1 0.00 0.00 0.00 35 1029.1
20190820144118 21 209 6.4 16.1 0.00 0.00 0.00 35 1029.0
20190820144016 21 248 4.8 16.1 0.00 0.00 0.00 35 1029.0
20190820143910 21 225 4.8 16.1 0.00 0.00 0.00 35 1029.0
20190820143803 21 298 4.8 16.1 0.00 0.00 0.00 35 1029.0
20190820143659 21 316 4.8 16.1 0.00 0.00 0.00 36 1029.0
20190820143555 21 277 4.8 16.1 0.00 0.00 0.00 36 1029.1
20190820143451 21 225 4.8 14.5 0.00 0.00 0.00 36 1029.1
20190820143344 21 221 4.8 14.5 0.00 0.00 0.00 35 1029.1
20190820143240 21 202 6.4 14.5 0.00 0.00 0.00 36 1029.0
20190820143133 21 219 6.4 17.7 0.00 0.00 0.00 36 1029.1
20190820143026 21 200 6.4 17.7 0.00 0.00 0.00 36 1029.0
20190820142920 21 204 8.0 17.7 0.00 0.00 0.00 36 1029.0
20190820142815 21 225 8.0 17.7 0.00 0.00 0.00 36 1029.0
20190820142708 21 296 6.4 17.7 0.00 0.00 0.00 36 1028.9
20190820142602 21 250 8.0 17.7 0.00 0.00 0.00 36 1028.9
20190820142458 21 284 8.0 17.7 0.00 0.00 0.00 36 1028.8
20190820142355 21 285 8.0 17.7 0.00 0.00 0.00 36 1028.7
20190820142249 21 279 6.4 17.7 0.00 0.00 0.00 36 1028.8
20190820142143 21 292 6.4 17.7 0.00 0.00 0.00 36 1028.8
20190820142037 21 279 6.4 17.7 0.00 0.00 0.00 35 1028.9
20190820141935 21 298 4.8 17.7 0.00 0.00 0.00 35 1028.8
20190820141832 21 284 4.8 17.7 0.00 0.00 0.00 36 1028.8
20190820141729 21 187 4.8 17.7 0.00 0.00 0.00 35 1028.9
20190820141625 21 194 4.8 17.7 0.00 0.00 0.00 35 1028.8
20190820141521 21 284 4.8 17.7 0.00 0.00 0.00 35 1028.8
20190820141418 21 304 4.8 17.7 0.00 0.00 0.00 35 1028.8
20190820141312 21 226 4.8 17.7 0.00 0.00 0.00 35 1028.8
20190820141208 21 256 4.8 17.7 0.00 0.00 0.00 35 1028.8
20190820141102 21 207 4.8 17.7 0.00 0.00 0.00 35 1028.8
20190820140954 21 300 6.4 17.7 0.00 0.00 0.00 34 1028.8
20190820140848 21 299 6.4 17.7 0.00 0.00 0.00 34 1028.9
20190820140743 21 224 4.8 17.7 0.00 0.00 0.00 34 1028.8
20190820140636 21 247 4.8 17.7 0.00 0.00 0.00 35 1028.8
20190820140530 21 238 4.8 17.7 0.00 0.00 0.00 35 1028.8
20190820140424 21 193 6.4 17.7 0.00 0.00 0.00 35 1028.9
20190820140319 21 196 6.4 17.7 0.00 0.00 0.00 35 1028.8
20190820140213 21 216 6.4 16.1 0.00 0.00 0.00 36 1028.9
20190820140106 21 256 6.4 16.1 0.00 0.00 0.00 35 1028.7
20190820140003 21 298 6.4 16.1 0.00 0.00 0.00 35 1028.7
20190820135900 21 286 8.0 16.1 0.00 0.00 0.00 35 1028.7
20190820135755 21 262 8.0 16.1 0.00 0.00 0.00 35 1028.8